[{"header": {"dx": 0.06612293990616946, "dy": 0.0552356325346848, "nx": 98, "ny": 59, "la1": 35.046912555036876, "la2": 31.78801023549047, "lo1": -121.43107172385933, "lo2": -114.95102361305473, "refTime": "2026041121", "parameterCategory": 1, "parameterNumber": 2}, "data": [4.65, 4.37, 4.43, 4.45, 4.1, 3.84, 3.4, 2.89, 2.33, 2.19, 2.83, 3.56, 6.04, 6.83, 7.35, 7.06, 5.1, 4.03, 3.6, 4.96, 4.88, 5.98, 6.31, 7.13, 7.9, 7.9, 8.31, 8.73, 8.79, 8.43, 7.2, 5.84, 5.37, 6.6, 5.81, 2.8, 0.0, 0.0, 1.27, 3.93, 5.2, 6.17, 5.81, 4.46, 5.37, 6.73, 7.35, 8.38, 9.0, 8.85, 9.06, 9.24, 9.7, 10.43, 10.84, 11.6, 11.9, 12.27, 12.27, 12.27, 12.27, 12.62, 12.23, 12.7, 13.39, 13.49, 13.39, 11.64, 10.66, 9.96, 9.96, 10.01, 10.66, 11.41, 11.2, 11.5, 11.79, 11.03, 11.11, 9.24, 7.6, 6.99, 6.45, 5.73, 4.92, 5.36, 7.6, 8.56, 8.38, 7.51, 6.79, 6.65, 6.79, 5.72, 6.08, 6.7, 6.94, 5.93, 4.65, 4.71, 4.43, 4.45, 3.85, 4.1, 3.4, 2.89, 2.21, 2.33, 2.3, 4.13, 5.29, 6.53, 7.59, 6.64, 4.26, 3.8, 3.8, 4.12, 5.1, 5.1, 6.24, 6.76, 6.83, 7.18, 7.59, 8.02, 8.12, 7.06, 5.36, 4.34, 4.56, 6.32, 7.37, 2.99, 0.0, 0.0, 1.27, 4.29, 4.8, 4.47, 4.09, 5.06, 6.64, 7.59, 8.31, 8.22, 8.01, 8.45, 8.84, 9.6, 10.43, 10.48, 10.81, 11.6, 11.9, 12.27, 12.27, 12.27, 12.27, 12.23, 12.56, 12.98, 12.98, 12.45, 11.26, 9.96, 9.89, 10.58, 10.63, 11.04, 11.6, 11.5, 11.5, 11.79, 11.79, 11.03, 11.11, 9.24, 7.6, 6.99, 6.45, 5.73, 4.92, 5.36, 7.6, 8.56, 8.38, 7.51, 6.79, 6.65, 6.79, 5.72, 6.08, 6.7, 6.94, 5.93, 4.65, 4.71, 4.71, 4.74, 4.12, 4.1, 3.42, 2.92, 2.21, 2.33, 2.19, 2.83, 5.29, 6.83, 7.35, 5.89, 4.26, 3.27, 3.63, 4.88, 4.0, 4.88, 4.88, 5.92, 7.78, 6.7, 6.42, 6.04, 6.18, 5.21, 4.4, 3.51, 4.25, 6.58, 6.21, 3.79, -1.99, -0.88, 1.08, 2.2, 2.97, 3.48, 4.71, 6.31, 7.36, 7.64, 7.51, 8.18, 8.05, 8.31, 9.11, 10.01, 10.51, 10.51, 10.82, 11.6, 11.9, 12.27, 12.27, 12.27, 12.62, 12.23, 12.98, 12.45, 11.6, 10.01, 9.89, 10.12, 10.84, 11.25, 11.66, 11.64, 11.5, 11.5, 11.79, 11.79, 12.53, 12.04, 10.32, 8.72, 7.2, 6.88, 6.17, 5.36, 4.92, 6.26, 7.42, 7.76, 6.84, 6.79, 6.65, 6.79, 5.93, 6.08, 5.86, 6.7, 6.7, 5.93, 4.84, 5.01, 4.71, 4.74, 4.45, 4.1, 3.42, 2.92, 2.37, 2.21, 2.19, 3.01, 5.29, 6.95, 6.95, 5.89, 4.12, 3.45, 3.32, 4.2, 4.0, 4.0, 4.96, 5.21, 6.0, 6.63, 5.29, 5.21, 4.34, 3.32, 2.59, 2.49, 3.51, 5.32, 5.59, 5.2, 0.0, 0.0, 0.0, 2.8, 2.76, 4.07, 5.06, 6.43, 7.63, 7.63, 7.49, 8.05, 8.31, 8.84, 9.43, 10.12, 10.18, 10.58, 10.92, 11.64, 11.9, 12.65, 12.27, 12.62, 12.62, 12.7, 12.45, 11.02, 9.26, 8.18, 10.01, 10.43, 11.49, 11.8, 12.65, 12.15, 11.5, 11.21, 11.52, 12.53, 12.53, 12.71, 10.41, 8.06, 6.28, 6.64, 6.26, 5.81, 5.81, 6.94, 7.15, 6.0, 5.93, 6.43, 7.63, 6.56, 6.7, 5.86, 7.1, 7.51, 6.56, 5.8, 5.08, 5.21, 4.71, 4.74, 4.45, 3.85, 3.42, 2.26, 2.23, 1.69, 2.33, 2.86, 5.46, 6.48, 6.18, 4.96, 3.15, 2.44, 3.32, 3.49, 3.61, 3.87, 3.7, 4.05, 3.49, 3.92, 4.08, 3.92, 4.23, 2.57, 2.47, 1.68, 2.7, 3.45, 6.14, 5.86, 6.79, 7.37, 4.92, 3.47, 3.39, 4.36, 5.67, 6.52, 7.36, 7.93, 8.18, 8.31, 9.24, 8.95, 9.36, 9.48, 10.22, 10.58, 11.25, 11.64, 12.27, 12.27, 12.62, 12.56, 12.15, 12.04, 10.04, 8.12, 7.49, 8.99, 9.89, 10.65, 11.79, 12.87, 13.27, 12.65, 11.6, 11.92, 11.79, 11.28, 12.71, 12.27, 9.49, 6.94, 5.36, 6.26, 6.26, 5.81, 6.17, 6.01, 5.0, 4.93, 5.8, 7.63, 7.38, 7.51, 6.7, 6.7, 7.51, 7.38, 6.65, 5.67, 5.08, 5.21, 4.94, 4.74, 4.74, 4.12, 3.45, 2.26, 1.71, 1.71, 1.69, 2.86, 5.21, 6.11, 5.82, 4.34, 3.32, 2.83, 2.57, 2.7, 3.49, 3.21, 3.61, 2.49, 2.39, 2.7, 2.49, 2.71, 3.92, 3.92, 2.83, 1.84, 2.54, 3.4, 4.83, 5.49, 7.68, 8.79, 7.76, 4.13, 3.23, 3.76, 5.55, 6.4, 7.23, 8.06, 9.25, 9.11, 9.24, 9.06, 9.17, 9.17, 9.89, 10.24, 11.28, 12.03, 11.88, 12.23, 12.56, 12.15, 11.5, 9.43, 6.84, 6.52, 7.45, 9.12, 9.77, 10.34, 12.16, 13.23, 13.89, 13.27, 13.25, 12.56, 12.3, 11.61, 11.8, 11.36, 9.68, 6.64, 5.26, 5.73, 5.81, 5.81, 5.24, 4.4, 4.33, 5.8, 7.03, 7.63, 7.63, 7.38, 7.51, 7.51, 8.3, 7.49, 6.52, 5.86, 5.08, 5.21, 4.94, 4.71, 4.43, 4.12, 3.22, 2.29, 1.61, 1.71, 1.69, 2.21, 4.34, 4.5, 5.21, 3.63, 2.57, 2.83, 2.57, 2.35, 3.15, 2.44, 1.67, 1.84, 2.28, 1.2, 1.2, 2.58, 4.23, 4.56, 3.87, 1.84, 1.75, 2.67, 3.91, 4.96, 6.53, 9.16, 7.85, 4.13, 2.45, 3.73, 4.98, 5.92, 7.28, 8.18, 10.05, 9.77, 8.84, 9.21, 9.21, 9.17, 9.89, 10.63, 11.28, 11.66, 11.83, 11.6, 12.04, 12.21, 9.42, 5.9, 4.98, 5.79, 7.53, 9.92, 10.83, 11.47, 11.82, 13.23, 13.89, 13.87, 13.59, 13.52, 12.45, 11.87, 11.8, 11.05, 8.9, 6.26, 4.77, 5.26, 5.81, 5.51, 4.68, 3.95, 5.06, 6.79, 7.63, 7.9, 7.63, 8.09, 8.42, 8.3, 8.18, 7.49, 6.52, 5.67, 5.47, 5.21, 5.21, 4.94, 4.71, 3.83, 3.47, 2.29, 1.73, 1.09, 1.16, 1.71, 2.98, 3.63, 3.7, 2.99, 2.44, 1.75, 1.6, 2.57, 2.54, 2.51, 0.89, 0.89, 1.65, 1.25, 1.18, 2.54, 5.21, 5.21, 2.69, 1.2, 1.4, 2.69, 3.09, 4.83, 5.59, 7.06, 7.56, 5.2, 4.08, 4.08, 5.0, 5.64, 6.94, 7.95, 8.05, 8.99, 9.25, 9.91, 9.17, 9.89, 9.89, 10.63, 11.03, 11.26, 11.6, 11.5, 11.61, 10.18, 6.18, 3.32, 4.16, 5.79, 8.16, 9.92, 11.29, 11.47, 12.26, 13.87, 14.39, 14.58, 14.33, 13.23, 13.01, 12.14, 12.27, 11.14, 8.49, 5.36, 3.82, 4.38, 4.92, 4.8, 3.91, 4.5, 5.2, 7.12, 8.59, 8.3, 8.16, 8.22, 8.42, 9.06, 8.31, 7.49, 6.52, 5.67, 5.47, 5.47, 5.21, 5.21, 4.37, 4.11, 3.49, 2.29, 1.73, 1.18, 1.1, 1.1, 1.47, 1.84, 4.0, 2.69, 1.84, 0.85, 0.85, 1.84, 1.47, 1.4, 0.94, 1.07, 0.95, 1.32, 1.32, 2.82, 4.37, 3.91, 1.4, -0.0, 1.32, 2.54, 4.42, 5.37, 5.69, 5.31, 5.21, 5.1, 5.0, 5.0, 5.0, 5.92, 6.71, 6.31, 6.94, 8.2, 9.25, 9.77, 10.19, 8.95, 9.8, 10.22, 10.3, 10.01, 10.04, 10.4, 10.18, 7.58, 3.39, 3.28, 4.04, 6.47, 8.16, 10.83, 12.42, 12.87, 12.89, 13.75, 14.42, 13.83, 14.09, 12.33, 11.98, 12.41, 12.04, 10.69, 7.15, 4.02, 3.82, 4.0, 4.92, 5.21, 5.38, 6.09, 6.53, 8.3, 8.85, 8.9, 8.27, 7.94, 8.16, 9.24, 9.11, 7.36, 6.31, 6.0, 5.08, 5.47, 5.47, 4.84, 4.65, 4.07, 3.49, 2.8, 1.63, 1.63, 1.76, 1.12, 0.53, 1.14, 2.83, 1.95, 1.0, -0.0, -0.0, -0.0, 1.4, 1.4, 1.4, 1.4, 1.58, 1.4, 1.32, 1.4, 2.82, 2.66, 1.4, 1.49, 1.49, 2.99, 5.03, 5.69, 5.06, 3.33, 5.21, 5.98, 6.04, 6.31, 6.04, 5.76, 5.76, 5.52, 5.76, 7.24, 8.95, 9.89, 9.49, 9.25, 8.99, 9.11, 8.05, 8.18, 8.3, 8.64, 8.18, 5.21, 3.25, 4.1, 5.71, 6.54, 8.74, 11.29, 12.78, 12.78, 12.39, 13.11, 13.23, 12.44, 12.14, 11.42, 11.6, 11.18, 10.73, 8.44, 4.82, 3.39, 3.9, 5.75, 6.2, 6.39, 6.71, 7.63, 8.09, 8.85, 9.21, 8.94, 8.3, 7.22, 7.51, 8.05, 9.11, 7.49, 6.0, 5.8, 5.4, 5.08, 5.08, 5.08, 4.93, 4.29, 3.83, 2.8, 2.29, 1.76, 1.65, 1.8, 1.84, 1.16, 1.96, 1.01, 1.01, -0.0, -0.0, 0.57, 0.96, 1.98, 1.98, 3.0, 2.82, 1.49, 1.4, 1.49, 3.4, 3.4, 4.56, 3.0, 3.2, 3.97, 5.06, 5.69, 5.31, 4.96, 5.36, 6.95, 6.95, 6.18, 5.89, 5.21, 4.44, 4.83, 5.64, 6.7, 6.57, 7.51, 7.23, 8.39, 8.25, 6.59, 6.42, 6.42, 7.27, 7.93, 6.98, 3.32, 3.16, 4.79, 6.59, 7.6, 8.86, 10.86, 12.13, 12.23, 11.38, 10.92, 10.63, 11.12, 10.48, 10.75, 10.7, 9.83, 6.71, 4.8, 3.22, 3.72, 5.59, 7.59, 8.85, 8.22, 8.37, 8.79, 9.53, 9.56, 9.56, 8.3, 7.59, 7.64, 7.38, 8.45, 8.45, 7.63, 5.93, 5.72, 5.4, 5.31, 5.08, 5.08, 4.93, 4.93, 4.11, 3.47, 2.29, 2.29, 2.32, 2.32, 2.36, 1.7, 1.19, 1.08, 1.23, 0.57, 0.59, 0.61, 1.16, 1.61, 2.53, 4.74, 3.0, 3.0, 1.52, 0.61, 2.4, 4.74, 5.69, 4.87, 5.15, 5.37, 5.49, 5.37, 5.3, 5.89, 6.64, 7.06, 7.06, 6.32, 5.24, 3.8, 3.8, 3.45, 5.1, 4.8, 5.2, 5.08, 4.98, 5.79, 4.98, 4.04, 4.04, 4.91, 7.4, 9.8, 7.63, 3.36, 3.26, 5.8, 6.47, 7.27, 8.0, 9.76, 10.78, 10.56, 9.98, 9.79, 10.87, 11.06, 10.81, 11.11, 9.83, 6.64, 3.6, 2.16, 4.12, 6.44, 8.18, 9.7, 10.75, 9.8, 9.8, 10.15, 10.19, 9.92, 8.94, 8.3, 7.52, 7.36, 8.09, 9.06, 8.3, 7.51, 6.84, 5.86, 5.4, 5.4, 5.31, 5.08, 5.08, 4.93, 4.37, 3.47, 3.0, 2.32, 2.32, 2.16, 2.36, 2.18, 1.73, 1.57, 1.76, 1.8, 1.84, 1.16, 1.2, 1.9, 2.4, 2.5, 2.5, 2.21, 1.9, 1.58, 1.58, 2.15, 4.98, 5.49, 6.18, 6.18, 6.18, 5.37, 5.37, 6.01, 6.32, 7.15, 7.15, 5.69, 4.16, 3.33, 2.4, 2.33, 2.39, 2.49, 2.49, 3.61, 3.02, 3.61, 2.28, 0.71, 1.11, 3.47, 7.0, 12.03, 8.95, 3.25, 2.45, 4.88, 6.42, 6.72, 6.64, 7.28, 8.46, 10.0, 9.93, 11.28, 12.85, 12.87, 12.22, 11.54, 8.0, 4.02, 1.84, 4.92, 7.73, 9.37, 10.07, 11.47, 11.8, 12.22, 11.47, 12.26, 11.03, 9.52, 8.3, 8.27, 7.44, 8.16, 8.16, 8.42, 8.12, 7.78, 6.98, 6.24, 5.4, 5.4, 5.31, 5.31, 5.08, 5.08, 4.65, 3.84, 2.8, 2.32, 2.8, 2.82, 2.82, 2.61, 2.4, 2.2, 1.76, 2.23, 2.51, 2.23, 2.21, 2.15, 2.4, 2.6, 2.6, 2.68, 2.24, 1.34, 1.34, 1.2, 2.4, 4.54, 6.08, 5.49, 6.18, 5.37, 4.95, 5.53, 6.45, 7.2, 6.11, 4.29, 3.68, 2.4, 2.4, 2.33, 1.75, 2.46, 2.46, 3.52, 3.52, 2.33, -0.0, -0.0, 1.2, 2.4, 6.01, 11.35, 11.63, 3.32, 0.81, 4.6, 5.94, 5.94, 5.67, 6.35, 6.51, 6.7, 9.43, 11.37, 13.91, 14.77, 14.46, 12.04, 7.54, 3.77, 5.93, 8.99, 11.59, 12.42, 12.5, 13.26, 12.76, 12.72, 12.42, 13.27, 11.28, 9.4, 8.27, 8.53, 8.9, 8.22, 8.22, 8.53, 7.9, 7.78, 6.98, 6.08, 5.4, 5.4, 5.81, 5.81, 5.31, 5.08, 4.65, 4.12, 2.8, 2.8, 2.82, 2.82, 2.82, 2.84, 2.84, 2.2, 2.22, 2.48, 2.23, 2.84, 3.14, 2.68, 2.4, 2.17, 2.24, 2.24, 1.79, 1.34, 0.89, 0.89, 0.95, 1.88, 5.72, 5.69, 5.69, 4.96, 5.21, 6.01, 7.81, 6.18, 5.49, 3.91, 2.66, 2.54, 2.69, 2.69, 2.83, 2.54, 2.54, 2.54, 3.6, 2.4, 1.18, -0.0, 1.23, 3.76, 6.13, 9.2, 8.9, 3.47, 1.58, 3.68, 5.86, 6.08, 6.3, 5.86, 5.86, 6.97, 8.53, 10.36, 12.87, 15.86, 16.03, 12.09, 8.12, 7.13, 10.59, 12.96, 13.74, 13.8, 14.51, 14.26, 13.19, 12.54, 11.72, 12.62, 11.03, 9.26, 8.85, 9.89, 9.17, 8.22, 7.82, 7.85, 8.53, 6.7, 5.8, 5.8, 5.4, 5.81, 5.6, 5.6, 5.6, 5.08, 4.65, 4.12, 3.47, 3.04, 2.82, 3.49, 3.49, 2.84, 2.84, 2.86, 3.15, 2.86, 2.86, 3.16, 3.35, 3.32, 2.63, 2.24, 2.17, 2.12, 1.2, 0.0, 0.0, 0.45, -0.0, 1.84, 3.15, 5.37, 4.14, 4.26, 5.1, 5.69, 6.63, 5.69, 4.29, 3.77, 2.69, 2.83, 2.83, 2.83, 2.83, 3.8, 3.4, 2.82, 3.4, 3.91, 3.68, 2.49, 3.22, 5.01, 6.13, 6.52, 5.92, 5.43, 5.06, 6.01, 6.01, 6.95, 7.56, 7.21, 5.89, 6.95, 8.15, 10.41, 12.39, 16.19, 16.96, 12.56, 9.11, 10.47, 13.91, 15.11, 15.5, 15.12, 15.09, 14.79, 13.64, 11.92, 9.9, 8.82, 10.01, 9.48, 9.8, 10.51, 10.22, 7.44, 8.16, 8.85, 7.36, 6.77, 6.57, 6.57, 5.81, 5.6, 5.6, 6.0, 5.6, 5.47, 4.65, 4.12, 3.47, 2.82, 3.49, 3.49, 3.49, 3.22, 3.22, 3.2, 3.15, 2.86, 3.49, 4.0, 4.11, 3.53, 2.68, 2.68, 2.4, 1.24, 0.0, -0.57, -0.6, -0.0, 0.53, 2.22, 3.12, 4.14, 3.55, 4.03, 4.26, 4.37, 4.83, 4.14, 4.37, 2.83, 3.52, 2.83, 2.83, 2.83, 4.0, 4.0, 5.31, 4.29, 4.02, 4.02, 4.29, 4.29, 5.06, 6.13, 5.93, 6.52, 7.21, 7.81, 8.37, 7.44, 7.6, 8.22, 8.22, 6.07, 5.93, 5.93, 8.37, 11.2, 13.99, 15.61, 16.03, 12.87, 11.59, 12.96, 15.44, 16.48, 16.1, 15.47, 15.43, 14.79, 12.79, 10.4, 9.43, 8.38, 8.64, 9.8, 10.51, 10.12, 8.79, 8.16, 8.09, 8.01, 8.18, 6.67, 7.34, 7.34, 5.6, 6.0, 6.0, 6.0, 5.6, 5.47, 4.65, 3.83, 3.22, 3.49, 3.49, 3.49, 3.49, 3.49, 3.49, 3.48, 2.86, 2.84, 4.11, 4.55, 4.44, 2.68, 2.4, 2.91, 2.24, 0.57, 0.0, 0.0, 0.45, 0.54, 1.76, 2.84, 2.84, 3.12, 2.84, 3.72, 3.0, 3.4, 4.83, 4.14, 4.37, 2.83, 2.69, 2.83, 4.0, 4.0, 4.96, 5.59, 6.01, 5.69, 4.02, 3.76, 3.76, 4.02, 5.37, 6.52, 6.28, 6.28, 7.07, 7.76, 8.15, 8.63, 8.22, 8.22, 8.22, 6.4, 5.75, 6.23, 8.22, 11.21, 13.99, 15.94, 16.31, 14.49, 13.23, 14.26, 16.06, 17.42, 16.95, 15.76, 14.79, 14.22, 12.62, 9.57, 9.96, 9.96, 9.96, 9.96, 9.89, 9.7, 9.24, 8.59, 8.09, 7.93, 8.31, 8.31, 7.93, 7.93, 6.1, 6.1, 6.1, 6.1, 5.81, 5.47, 4.65, 3.83, 3.49, 3.49, 3.49, 3.49, 3.49, 3.49, 3.49, 4.74, 2.86, 2.84, 4.11, 4.9, 3.53, 1.24, 1.11, 3.91, 3.79, 3.6, 0.89, 2.53, 3.22, 2.4, 2.82, 3.49, 3.22, 2.86, 2.86, 2.48, 2.23, 2.51, 3.91, 4.56, 4.58, 4.87, 4.37, 4.37, 4.96, 5.59, 6.32, 6.63, 6.63, 5.69, 5.06, 4.02, 4.02, 5.06, 5.37, 6.63, 6.28, 7.07, 7.81, 8.54, 8.54, 8.54, 8.63, 7.35, 7.35, 6.8, 6.7, 7.21, 8.4, 10.21, 13.02, 15.59, 17.91, 16.6, 15.35, 15.31, 16.36, 17.13, 16.76, 15.52, 13.64, 12.23, 11.28, 10.55, 11.64, 10.63, 10.66, 9.21, 8.85, 8.79, 9.7, 8.95, 8.18, 7.93, 8.99, 9.39, 8.84, 8.84, 6.3, 6.3, 6.3, 6.3, 5.81, 5.08, 4.37, 3.83, 3.49, 3.78, 3.49, 3.79, 3.79, 3.79, 3.48, 3.48, 2.86, 2.86, 4.74, 5.95, 4.11, 1.23, 1.16, 2.64, 3.72, 3.72, 4.19, 2.84, 3.76, 3.47, 3.49, 3.22, 3.49, 2.86, 2.86, 3.16, 2.53, 2.79, 3.14, 3.43, 4.07, 4.65, 4.65, 4.43, 4.12, 6.98, 6.63, 6.63, 7.28, 6.08, 5.06, 4.29, 5.06, 5.37, 5.06, 6.11, 7.21, 6.39, 7.81, 8.93, 8.54, 8.15, 7.76, 8.0, 6.8, 7.03, 7.42, 8.0, 9.03, 10.68, 13.23, 17.55, 19.74, 18.5, 16.54, 15.56, 15.45, 15.45, 14.66, 13.72, 13.11, 12.62, 12.27, 11.64, 12.27, 11.12, 9.92, 9.2, 8.53, 8.09, 9.06, 9.24, 8.95, 8.31, 9.3, 10.65, 10.43, 10.43, 6.3, 6.3, 6.3, 5.88, 5.81, 5.08, 4.11, 4.11, 3.78, 3.49, 3.79, 4.07, 4.07, 4.07, 3.48, 3.48, 2.86, 2.86, 2.86, 4.74, 4.58, 2.82, 2.4, 2.22, 2.86, 3.48, 3.49, 3.49, 3.49, 3.49, 3.49, 3.2, 3.2, 3.48, 3.48, 3.43, 2.84, 3.14, 3.14, 3.35, 4.27, 4.37, 4.65, 4.11, 3.83, 6.01, 6.63, 7.28, 7.28, 5.37, 4.56, 3.91, 5.03, 5.03, 5.31, 5.24, 6.73, 7.06, 8.37, 7.81, 7.81, 7.81, 7.44, 7.44, 6.82, 7.42, 7.44, 8.06, 9.04, 10.66, 12.86, 16.6, 19.31, 17.36, 14.55, 12.98, 11.88, 12.09, 12.07, 12.09, 13.11, 13.25, 13.27, 12.72, 12.23, 10.66, 9.17, 9.13, 9.43, 8.16, 8.3, 8.95, 9.7, 9.43, 10.43, 10.78, 10.81, 10.81, 6.3, 6.3, 6.04, 6.04, 5.4, 4.93, 4.07, 4.11, 3.79, 3.79, 4.07, 4.07, 4.07, 4.07, 3.73, 3.48, 3.16, 3.16, 3.16, 3.43, 3.48, 3.49, 3.48, 3.16, 2.84, 2.84, 3.16, 3.16, 3.16, 2.86, 2.86, 2.86, 3.48, 3.48, 3.78, 3.43, 3.43, 3.35, 3.35, 3.35, 3.43, 4.0, 4.07, 3.79, 3.83, 4.12, 6.63, 6.9, 6.9, 5.69, 4.14, 5.31, 5.31, 5.31, 5.31, 6.32, 6.64, 6.95, 7.56, 7.81, 6.79, 7.44, 7.42, 7.42, 7.42, 6.79, 6.73, 7.35, 7.97, 9.17, 10.69, 15.07, 17.47, 15.77, 5.94, 6.98, 8.33, 8.36, 9.39, 10.32, 12.56, 13.29, 14.46, 13.49, 12.0, 10.12, 9.11, 9.89, 10.07, 8.79, 8.09, 8.73, 10.12, 10.12, 10.81, 11.17, 10.58, 10.58, 6.47, 6.47, 6.04, 5.99, 5.31, 4.55, 4.07, 3.79, 3.79, 4.07, 4.07, 4.07, 4.37, 4.37, 3.73, 3.48, 3.78, 3.43, 3.43, 3.43, 3.43, 3.43, 3.16, 2.84, 2.84, 2.84, 2.84, 3.16, 3.16, 3.16, 3.16, 3.16, 3.16, 3.43, 3.43, 3.43, 3.43, 3.43, 3.43, 3.43, 3.43, 3.78, 3.48, 3.49, 3.78, 3.83, 6.63, 6.9, 5.69, 4.37, 4.0, 4.96, 5.59, 5.59, 5.31, 6.01, 5.89, 6.53, 7.9, 6.55, 6.55, 6.79, 7.15, 7.15, 7.06, 7.06, 6.64, 6.64, 7.35, 7.18, 9.17, 10.12, 18.95, 13.59, 8.4, 7.28, 8.8, 9.36, 9.72, 10.49, 11.52, 13.39, 13.64, 12.65, 10.65, 9.92, 9.66, 10.05, 10.83, 10.98, 9.1, 9.48, 10.81, 11.17, 10.82, 10.81, 9.9, 9.9, 6.47, 6.47, 6.04, 6.04, 5.31, 4.55, 4.07, 4.07, 4.07, 4.07, 4.07, 4.37, 4.37, 4.37, 4.0, 3.78, 3.78, 3.78, 3.43, 3.43, 3.43, 2.84, 2.84, 2.84, 2.84, 2.84, 2.84, 2.84, 2.84, 2.84, 2.84, 3.16, 3.16, 3.43, 3.43, 3.43, 3.43, 3.43, 3.43, 3.43, 3.43, 3.43, 3.48, 3.49, 3.49, 3.79, 6.28, 5.69, 5.31, 5.31, 5.59, 5.31, 5.31, 5.31, 5.31, 5.31, 5.24, 6.18, 6.95, 6.32, 5.37, 5.69, 6.73, 7.4, 6.95, 6.95, 6.95, 7.59, 6.95, 7.35, 8.03, 16.0, 20.75, 19.65, 16.57, 13.99, 12.91, 12.07, 11.62, 10.28, 11.62, 12.5, 11.52, 9.53, 8.86, 9.37, 9.92, 10.43, 11.19, 12.23, 10.75, 10.81, 10.82, 10.81, 11.16, 10.19, 9.56, 9.56, 6.47, 6.47, 6.04, 6.16, 5.57, 4.9, 4.07, 4.07, 4.07, 4.37, 4.55, 4.55, 4.55, 4.37, 4.0, 4.0, 4.0, 4.0, 3.78, 3.43, 3.43, 3.35, 3.14, 3.14, 3.14, 3.14, 3.14, 3.14, 3.14, 3.14, 3.14, 2.84, 2.84, 3.35, 3.72, 3.72, 3.43, 3.43, 3.43, 3.43, 3.43, 3.43, 3.48, 3.79, 4.07, 4.07, 4.55, 4.93, 4.84, 5.08, 4.93, 6.28, 5.69, 5.03, 5.31, 5.59, 5.59, 4.95, 6.32, 5.72, 6.64, 5.69, 6.32, 7.06, 6.95, 6.95, 6.83, 7.59, 7.59, 8.63, 10.95, 12.87, 18.02, 18.68, 19.65, 17.91, 14.47, 11.62, 11.4, 9.97, 10.18, 9.83, 8.32, 6.44, 7.23, 8.99, 9.77, 10.54, 11.59, 12.33, 14.08, 12.43, 11.79, 10.66, 9.57, 9.57, 8.9, 8.9, 6.6, 6.6, 6.16, 6.16, 5.57, 4.8, 4.37, 3.73, 3.73, 4.37, 4.55, 4.55, 4.55, 4.37, 4.0, 4.0, 4.0, 4.0, 4.0, 3.43, 3.72, 3.35, 3.35, 3.14, 2.79, 2.79, 2.79, 3.07, 2.79, 2.79, 3.14, 3.14, 3.35, 3.35, 3.35, 3.35, 3.35, 3.35, 3.35, 3.35, 3.35, 3.72, 3.78, 3.73, 4.07, 4.55, 4.8, 4.8, 5.09, 4.6, 4.11, 3.43, 5.69, 4.37, 5.59, 5.59, 5.31, 5.03, 5.31, 6.01, 6.95, 7.9, 6.45, 6.73, 7.06, 6.95, 6.83, 7.59, 8.38, 9.6, 10.43, 12.94, 13.64, 16.63, 18.68, 20.08, 17.33, 12.05, 8.06, 7.12, 7.54, 6.94, 5.41, 5.2, 7.34, 8.99, 9.77, 10.95, 11.38, 12.07, 13.8, 13.68, 11.8, 9.84, 8.9, 9.26, 8.9, 8.9, 6.61, 6.61, 6.16, 6.16, 5.57, 4.8, 4.07, 3.73, 4.0, 4.37, 4.55, 4.55, 4.55, 4.37, 4.0, 4.0, 4.0, 4.0, 4.0, 3.43, 3.72, 3.72, 3.6, 3.07, 2.79, 2.79, 3.07, 3.07, 3.07, 3.07, 3.07, 3.39, 3.39, 3.39, 3.39, 3.6, 3.6, 3.2, 3.2, 3.2, 3.6, 3.6, 4.0, 4.07, 4.55, 4.55, 4.8, 4.6, 4.34, 3.87, 3.14, 3.15, 2.84, 3.22, 4.42, 5.69, 5.31, 5.03, 4.42, 6.01, 7.9, 7.06, 7.9, 6.32, 7.27, 6.18, 6.83, 8.38, 9.43, 10.55, 11.37, 12.09, 12.8, 14.05, 15.47, 18.68, 20.55, 14.77, 8.45, 5.81, 6.45, 5.1, 3.76, 5.29, 7.44, 8.94, 10.65, 11.79, 12.22, 12.22, 12.43, 13.41, 12.84, 10.58, 9.56, 9.56, 9.57, 9.57, 6.61, 6.61, 6.6, 6.16, 5.57, 4.8, 4.07, 3.73, 3.73, 4.55, 4.55, 4.55, 4.55, 4.55, 4.55, 4.0, 4.0, 4.0, 4.0, 3.88, 3.88, 4.11, 4.11, 3.6, 3.07, 2.5, 2.5, 2.5, 2.5, 2.91, 2.91, 3.07, 3.53, 3.39, 3.39, 3.39, 3.2, 3.2, 3.2, 3.6, 3.6, 3.72, 4.0, 4.29, 4.65, 4.65, 4.9, 4.6, 3.87, 3.14, 2.44, 3.08, 3.49, 3.49, 3.49, 5.37, 5.69, 5.03, 4.68, 6.01, 7.15, 7.41, 6.73, 6.18, 6.18, 7.59, 8.38, 8.42, 9.42, 10.55, 11.87, 12.71, 12.27, 11.8, 13.23, 16.7, 19.67, 19.51, 14.71, 10.68, 8.17, 2.2, 1.71, 4.58, 7.28, 9.48, 10.81, 12.62, 12.89, 12.27, 12.0, 12.26, 13.18, 11.15, 10.18, 10.19, 10.19, 10.19, 6.61, 6.61, 6.6, 6.16, 5.57, 4.8, 3.73, 3.73, 3.73, 4.0, 4.55, 4.55, 4.55, 4.55, 4.55, 4.4, 4.4, 4.27, 4.27, 3.88, 3.88, 4.11, 4.34, 4.3, 3.2, 3.07, 2.21, 1.88, 2.5, 2.91, 3.07, 3.07, 3.07, 3.07, 2.91, 2.91, 3.07, 3.2, 3.6, 3.6, 3.7, 3.88, 4.0, 5.06, 5.37, 5.01, 5.09, 3.72, 2.44, 2.44, 2.82, 3.47, 3.49, 3.78, 3.49, 3.49, 5.69, 5.03, 5.37, 6.45, 7.15, 7.15, 6.73, 6.95, 6.95, 8.02, 8.73, 8.82, 9.24, 10.18, 11.61, 12.53, 12.27, 11.51, 12.52, 14.73, 16.48, 18.45, 20.39, 16.85, 11.27, 3.2, 2.77, 4.05, 8.53, 10.19, 11.69, 12.79, 12.79, 11.88, 11.28, 12.27, 12.33, 11.8, 11.18, 10.55, 10.55, 10.55, 6.61, 6.61, 6.6, 6.16, 5.57, 4.8, 4.0, 3.73, 3.73, 4.37, 4.55, 4.55, 4.8, 4.8, 4.8, 4.8, 4.4, 4.4, 4.27, 3.88, 3.88, 4.11, 4.77, 5.24, 5.24, 3.87, 2.68, 2.5, 2.68, 2.91, 2.63, 2.6, 2.4, 2.15, 2.5, 2.5, 3.07, 2.79, 3.35, 3.6, 4.11, 3.88, 3.43, 2.86, 3.49, 6.55, 6.21, 3.49, 2.82, 3.47, 3.49, 3.78, 3.49, 3.49, 3.49, 3.79, 4.07, 4.07, 5.84, 5.37, 6.11, 6.79, 6.73, 7.06, 7.76, 7.76, 8.38, 10.01, 8.43, 8.99, 9.75, 11.5, 13.11, 13.44, 12.96, 12.96, 13.31, 14.64, 18.45, 19.91, 14.79, 6.57, 5.1, 5.95, 7.23, 11.21, 11.95, 12.18, 12.01, 11.72, 10.94, 11.92, 12.13, 13.25, 11.75, 11.16, 10.81, 10.81, 6.61, 6.61, 6.6, 6.16, 5.57, 4.8, 4.0, 3.73, 4.0, 4.37, 4.55, 4.8, 4.8, 4.8, 4.8, 4.8, 4.8, 4.4, 4.4, 4.27, 4.11, 4.11, 4.6, 5.24, 5.7, 5.24, 3.87, 3.6, 3.6, 3.39, 2.91, 1.9, 1.88, 1.61, 2.23, 2.23, 2.53, 3.14, 3.35, 3.35, 3.72, 3.72, 3.43, 2.86, 3.48, 5.49, 5.37, 4.12, 4.12, 4.11, 4.07, 3.48, 3.48, 3.79, 4.07, 4.07, 4.0, 4.0, 4.37, 5.49, 6.18, 7.2, 7.15, 7.81, 7.81, 7.15, 6.73, 8.49, 9.3, 9.32, 7.82, 9.05, 12.23, 15.52, 15.12, 12.49, 11.18, 11.95, 15.08, 18.2, 16.73, 13.41, 8.94, 8.43, 8.48, 8.33, 8.49, 11.18, 11.08, 10.49, 10.75, 11.45, 12.22, 12.54, 12.25, 11.75, 10.82, 10.82, 6.61, 6.61, 6.6, 6.16, 5.57, 4.8, 4.0, 4.0, 4.0, 4.17, 4.8, 4.8, 4.8, 4.8, 4.8, 4.8, 4.8, 4.8, 4.4, 4.4, 4.52, 4.6, 4.77, 5.24, 5.7, 5.7, 5.24, 4.6, 6.0, 4.11, 2.79, 2.23, 1.8, 1.8, 2.23, 2.51, 2.51, 2.84, 3.14, 3.35, 3.35, 3.35, 3.43, 2.86, 3.43, 4.0, 4.07, 4.65, 4.29, 4.0, 3.43, 3.43, 3.43, 3.43, 3.78, 4.0, 4.0, 4.0, 4.0, 4.37, 6.6, 6.82, 7.82, 8.0, 8.21, 7.2, 6.18, 8.18, 9.48, 11.03, 8.82, 8.95, 11.62, 16.76, 17.57, 13.41, 10.28, 10.58, 12.74, 14.77, 15.7, 15.2, 14.31, 10.71, 9.86, 8.43, 6.71, 5.78, 9.35, 9.58, 10.32, 11.03, 11.88, 12.25, 12.33, 11.79, 11.44, 11.44, 6.6, 6.6, 6.16, 6.16, 5.57, 4.8, 4.0, 4.0, 4.0, 4.17, 4.8, 4.8, 4.9, 4.9, 4.8, 4.8, 4.8, 4.8, 4.8, 4.4, 4.6, 4.6, 5.24, 5.24, 5.7, 5.7, 5.26, 5.24, 5.09, 6.57, 3.78, 2.86, 2.86, 2.23, 2.51, 2.51, 2.51, 2.51, 3.14, 3.14, 2.79, 3.14, 2.84, 3.16, 3.78, 4.0, 3.88, 4.11, 3.88, 3.72, 2.84, 2.84, 3.16, 3.43, 3.43, 4.0, 4.0, 4.0, 4.0, 4.37, 4.93, 7.2, 7.81, 7.2, 7.82, 7.2, 7.2, 6.8, 9.45, 10.62, 10.0, 9.49, 10.6, 14.66, 18.94, 16.22, 11.36, 10.89, 12.33, 13.56, 14.56, 14.94, 15.04, 14.35, 10.34, 8.21, 5.7, 4.34, 9.13, 10.32, 10.85, 11.21, 11.6, 12.64, 12.72, 12.65, 11.79, 11.79, 6.16, 6.16, 6.16, 6.16, 5.57, 4.8, 4.0, 4.0, 4.0, 4.4, 4.8, 4.8, 4.9, 4.9, 4.9, 4.8, 5.09, 4.8, 4.8, 4.4, 4.6, 4.6, 5.24, 5.24, 5.78, 5.78, 5.26, 5.24, 5.09, 4.9, 4.55, 4.0, 3.35, 2.79, 2.53, 2.23, 2.23, 2.84, 3.14, 2.79, 2.79, 2.79, 2.84, 3.43, 4.0, 3.88, 4.11, 3.6, 3.6, 3.14, 2.84, 2.48, 2.86, 3.16, 3.43, 3.78, 4.0, 4.0, 4.37, 4.55, 6.9, 7.28, 6.63, 7.44, 6.82, 7.2, 7.42, 7.76, 8.63, 9.6, 9.65, 11.03, 11.84, 13.41, 17.26, 16.76, 13.72, 12.71, 12.5, 12.94, 12.94, 13.33, 13.56, 13.4, 12.22, 7.48, 6.41, 6.03, 10.23, 11.2, 11.2, 11.6, 11.6, 12.25, 12.64, 12.72, 12.72, 12.72, 6.16, 6.16, 6.16, 6.16, 5.7, 4.4, 4.27, 4.0, 4.27, 4.4, 4.8, 4.9, 4.9, 4.9, 5.31, 4.9, 4.9, 4.9, 4.8, 4.6, 4.6, 5.24, 5.24, 5.7, 5.78, 5.34, 5.24, 5.24, 5.09, 5.09, 5.02, 4.6, 4.11, 3.2, 3.07, 2.79, 2.79, 3.14, 3.14, 3.35, 3.07, 3.14, 3.43, 4.27, 4.4, 4.11, 3.6, 3.07, 2.79, 2.51, 2.48, 2.22, 2.86, 2.86, 3.78, 3.78, 4.0, 4.0, 4.8, 4.8, 4.55, 7.28, 7.28, 8.0, 8.0, 8.4, 7.42, 8.72, 8.3, 8.95, 9.2, 11.21, 12.94, 14.21, 15.45, 15.56, 14.84, 14.4, 13.31, 12.07, 10.73, 11.15, 11.53, 11.52, 10.94, 7.35, 7.44, 11.28, 11.28, 11.5, 11.83, 11.83, 12.15, 11.99, 12.4, 13.15, 13.07, 13.07, 6.16, 6.16, 6.16, 6.16, 5.7, 4.6, 4.27, 3.88, 4.27, 4.4, 4.4, 4.9, 4.9, 5.09, 5.31, 5.31, 5.31, 4.9, 4.9, 5.02, 5.09, 5.24, 5.26, 5.78, 5.78, 5.34, 5.24, 5.24, 5.09, 5.09, 4.6, 4.6, 4.19, 3.87, 3.6, 3.6, 3.6, 3.6, 3.35, 3.35, 3.6, 3.35, 3.88, 4.4, 4.27, 3.88, 3.35, 2.79, 2.51, 2.22, 2.44, 2.86, 2.86, 3.48, 3.78, 4.0, 4.0, 4.0, 4.8, 4.4, 4.4, 4.8, 8.06, 7.53, 7.76, 8.63, 8.17, 8.72, 8.3, 8.3, 9.63, 9.9, 13.88, 15.31, 14.99, 13.49, 13.91, 14.84, 14.36, 11.4, 9.58, 9.58, 10.02, 10.01, 10.09, 10.19, 10.91, 11.28, 11.53, 12.47, 12.39, 12.7, 12.56, 12.8, 12.44, 12.44, 13.15, 13.15, 6.6, 6.6, 6.16, 6.16, 5.7, 4.6, 3.88, 3.88, 3.88, 4.52, 4.6, 5.02, 5.09, 5.09, 5.51, 5.57, 5.51, 5.51, 5.09, 5.09, 5.24, 5.26, 5.78, 5.78, 5.34, 5.24, 5.24, 5.09, 5.09, 4.6, 4.6, 4.6, 4.6, 4.6, 4.11, 4.11, 4.11, 4.11, 4.11, 4.11, 4.11, 3.35, 3.88, 6.0, 4.0, 3.43, 3.43, 2.23, 1.76, 2.2, 2.86, 2.86, 3.15, 3.48, 3.78, 4.0, 4.0, 4.27, 4.8, 4.4, 4.4, 4.8, 8.06, 7.53, 7.76, 9.46, 8.06, 8.3, 7.76, 7.76, 8.3, 9.49, 13.02, 16.42, 15.13, 12.71, 12.53, 14.15, 14.42, 12.14, 10.27, 9.6, 9.6, 9.74, 9.9, 10.73, 11.16, 11.5, 12.39, 13.11, 13.49, 13.07, 12.87, 13.01, 12.53, 12.14, 12.18, 12.44, 6.61, 6.61, 6.6, 6.16, 5.7, 5.09, 4.6, 4.11, 4.11, 4.11, 4.6, 4.77, 4.77, 5.24, 5.24, 5.09, 5.57, 5.51, 5.09, 5.24, 5.7, 5.78, 5.78, 5.78, 5.34, 5.24, 5.24, 5.09, 4.66, 4.77, 4.77, 4.6, 4.6, 4.6, 4.6, 4.6, 4.6, 4.19, 4.11, 4.11, 4.11, 4.11, 3.88, 5.58, 4.07, 3.78, 2.86, 2.44, 2.2, 2.44, 2.86, 3.15, 3.48, 3.78, 4.0, 4.0, 4.0, 4.27, 4.8, 4.4, 4.4, 4.4, 7.63, 7.12, 7.63, 9.03, 8.63, 8.17, 8.0, 8.0, 8.0, 9.6, 12.6, 15.52, 17.13, 13.72, 11.95, 12.41, 12.18, 11.21, 10.4, 10.4, 10.4, 9.9, 10.48, 10.73, 11.6, 12.15, 12.56, 13.29, 13.29, 12.87, 13.01, 12.53, 12.27, 11.86, 11.86, 12.18, 6.61, 6.61, 6.51, 6.47, 6.04, 5.57, 5.09, 4.6, 4.11, 4.11, 4.6, 4.77, 4.77, 4.8, 5.24, 5.24, 5.24, 5.24, 5.26, 5.78, 5.78, 5.78, 5.78, 5.78, 5.34, 5.24, 5.24, 5.09, 5.09, 4.8, 4.77, 4.77, 4.6, 4.6, 4.6, 4.6, 4.6, 4.6, 4.19, 4.11, 4.11, 4.11, 3.6, 3.43, 5.06, 3.48, 2.44, 2.4, 2.4, 2.86, 2.86, 2.86, 3.16, 3.43, 4.0, 4.27, 4.27, 4.4, 4.4, 4.4, 4.27, 4.4, 5.09, 8.06, 8.06, 8.48, 7.76, 7.82, 7.81, 8.43, 8.43, 9.36, 12.04, 14.03, 16.79, 15.19, 12.8, 11.14, 10.14, 9.6, 10.0, 11.04, 11.04, 11.04, 10.65, 11.34, 11.47, 12.37, 12.58, 12.58, 12.58, 12.58, 12.74, 12.27, 11.96, 11.95, 11.08, 11.86, 6.51, 6.51, 6.51, 6.51, 6.51, 6.47, 5.99, 5.09, 4.6, 5.09, 5.09, 4.8, 4.8, 4.8, 4.8, 5.33, 5.33, 5.33, 5.34, 5.34, 5.78, 5.78, 5.78, 5.78, 5.26, 5.24, 5.09, 5.09, 5.24, 4.8, 4.77, 4.77, 4.77, 4.77, 4.6, 4.6, 4.6, 4.6, 4.19, 4.19, 4.34, 4.3, 3.2, 3.14, 3.15, 4.29, 2.84, 2.4, 2.86, 2.86, 2.86, 3.16, 3.16, 3.43, 3.88, 4.27, 4.27, 4.27, 4.4, 4.4, 4.27, 3.88, 7.06, 7.47, 7.6, 8.0, 7.6, 7.81, 7.44, 8.43, 9.42, 9.6, 11.21, 12.04, 13.59, 16.69, 15.86, 13.52, 10.43, 9.9, 10.4, 11.34, 11.47, 11.04, 11.34, 11.72, 11.95, 12.58, 12.14, 12.3, 12.3, 12.74, 12.42, 11.96, 11.51, 11.14, 10.25, 10.25, 6.51, 6.51, 6.51, 6.51, 6.51, 6.51, 6.51, 6.04, 6.3, 5.81, 5.57, 5.51, 5.24, 5.24, 5.24, 5.33, 5.33, 5.33, 5.34, 5.34, 5.34, 5.78, 5.78, 5.78, 5.26, 5.24, 5.09, 5.24, 5.24, 5.24, 4.8, 4.77, 4.77, 4.77, 4.77, 4.77, 4.77, 4.34, 4.19, 4.6, 4.77, 4.34, 3.82, 2.79, 2.86, 2.86, 3.12, 2.86, 2.86, 2.86, 2.86, 3.16, 3.16, 3.43, 3.72, 3.88, 4.27, 4.27, 4.27, 4.27, 4.27, 3.88, 4.27, 7.47, 6.9, 7.6, 7.44, 7.44, 7.15, 8.43, 9.77, 9.36, 11.45, 10.55, 12.21, 13.9, 17.1, 18.09, 14.46, 11.99, 11.21, 11.3, 11.21, 11.21, 11.21, 11.79, 12.09, 12.09, 12.27, 12.3, 12.42, 12.42, 11.96, 11.59, 10.25, 9.35, 9.35, 9.35, 6.51, 6.51, 6.51, 6.51, 6.51, 6.51, 6.94, 6.3, 6.3, 5.88, 5.99, 5.99, 5.57, 5.7, 5.7, 5.7, 5.26, 5.26, 5.26, 5.34, 5.78, 5.78, 5.78, 5.7, 5.24, 5.09, 5.24, 5.24, 5.24, 5.24, 5.24, 4.8, 4.77, 4.77, 4.77, 4.77, 4.77, 4.34, 4.34, 4.77, 4.77, 4.34, 3.87, 3.35, 2.86, 2.86, 2.44, 2.86, 2.86, 2.86, 2.86, 3.16, 3.16, 3.72, 3.72, 3.88, 4.11, 4.11, 4.11, 4.52, 4.11, 4.11, 3.88, 7.06, 6.9, 7.28, 8.0, 7.81, 7.82, 8.8, 9.66, 9.66, 9.9, 11.09, 12.04, 13.64, 16.39, 18.09, 17.1, 14.49, 12.79, 11.34, 10.79, 10.52, 11.03, 11.23, 11.66, 11.66, 12.27, 12.41, 11.96, 11.6, 11.15, 10.25, 9.35, 8.77, 8.77, 8.77, 6.47, 6.47, 6.47, 6.47, 6.51, 6.51, 6.47, 6.47, 6.47, 6.04, 6.04, 5.99, 5.99, 5.99, 5.7, 5.7, 5.7, 5.7, 5.7, 5.7, 5.78, 5.78, 5.7, 5.7, 5.24, 5.24, 5.24, 5.24, 5.24, 5.24, 5.24, 5.24, 4.8, 4.8, 4.77, 4.77, 4.77, 4.34, 4.34, 4.77, 4.77, 4.34, 3.87, 3.35, 2.86, 2.86, 2.44, 2.48, 2.86, 2.86, 3.16, 2.84, 3.14, 3.35, 3.72, 4.11, 4.11, 4.11, 4.11, 4.11, 4.11, 4.11, 4.11, 3.88, 6.9, 7.28, 8.0, 7.76, 8.72, 8.72, 10.05, 8.8, 9.9, 11.09, 12.45, 13.11, 14.71, 16.39, 16.48, 15.5, 14.88, 12.9, 11.21, 10.1, 10.1, 10.75, 10.8, 11.84, 11.96, 11.59, 12.01, 9.8, 9.8, 9.35, 8.77, 8.77, 8.77, 8.77, 6.6, 6.6, 6.47, 6.47, 6.51, 6.47, 6.47, 6.47, 6.04, 6.04, 6.04, 6.04, 5.99, 5.99, 5.99, 6.14, 6.14, 5.7, 5.7, 5.7, 5.7, 5.7, 5.7, 5.7, 5.09, 5.24, 5.24, 5.24, 5.24, 5.24, 5.24, 5.24, 5.24, 5.24, 4.8, 4.77, 4.77, 4.77, 4.34, 4.77, 4.77, 4.44, 3.87, 3.35, 3.15, 2.86, 2.22, 2.48, 2.23, 2.84, 2.84, 3.14, 3.35, 3.35, 3.6, 4.11, 4.11, 4.11, 4.11, 4.11, 4.11, 3.7, 3.6, 3.88, 4.4, 8.06, 8.06, 7.63, 8.56, 8.72, 9.13, 9.36, 10.0, 11.09, 12.15, 12.7, 13.75, 15.19, 14.88, 14.51, 15.5, 15.86, 12.79, 9.74, 10.01, 10.32, 10.96, 11.08, 11.14, 11.18, 9.76, 8.9, 9.21, 9.21, 8.77, 8.77, 8.77, 8.77, 6.16, 6.16, 6.47, 6.47, 6.6, 6.47, 6.47, 6.04, 6.04, 6.04, 6.04, 5.99, 5.99, 5.99, 6.04, 6.04, 6.16, 6.14, 6.14, 5.7, 5.7, 5.7, 5.57, 5.51, 5.51, 5.67, 5.7, 5.26, 5.24, 5.24, 5.24, 5.24, 5.24, 5.24, 5.24, 4.8, 4.8, 4.88, 4.34, 4.77, 4.8, 4.88, 3.87, 3.35, 3.15, 2.86, 2.22, 2.23, 2.51, 3.14, 3.14, 3.35, 3.6, 3.6, 3.7, 3.7, 3.7, 3.87, 3.87, 3.7, 3.7, 3.6, 3.6, 3.72, 4.4, 7.63, 7.63, 8.06, 8.63, 8.21, 8.8, 9.42, 10.4, 10.96, 11.6, 12.56, 13.19, 13.83, 13.51, 13.26, 14.88, 17.08, 14.85, 10.65, 10.01, 9.83, 10.05, 10.16, 9.8, 9.21, 9.21, 9.21, 8.99, 8.56, 8.3, 8.72, 8.72, 8.72, 6.16, 6.16, 6.6, 6.6, 6.6, 6.6, 6.6, 6.16, 6.04, 6.04, 5.99, 5.99, 5.99, 5.99, 6.04, 6.04, 6.04, 5.99, 5.99, 5.99, 5.99, 5.57, 5.57, 5.57, 5.7, 5.7, 5.7, 5.7, 5.26, 5.24, 5.24, 5.24, 5.24, 5.24, 5.24, 5.24, 5.33, 4.89, 4.77, 4.8, 4.89, 4.88, 4.3, 3.72, 3.15, 2.44, 2.22, 2.23, 2.23, 2.79, 2.79, 3.6, 3.6, 3.6, 3.82, 3.82, 3.82, 3.82, 3.82, 3.82, 3.6, 3.6, 3.6, 3.6, 3.88, 7.47, 8.06, 7.6, 8.4, 8.21, 8.8, 9.03, 10.0, 10.96, 11.2, 11.64, 12.23, 12.27, 12.89, 13.26, 14.49, 16.48, 16.12, 12.76, 10.27, 8.67, 8.63, 8.63, 8.63, 8.63, 9.21, 8.56, 8.56, 8.17, 8.4, 8.63, 8.63, 8.63, 6.16, 6.16, 6.16, 6.16, 6.16, 6.16, 6.16, 6.16, 6.04, 6.04, 5.99, 5.99, 5.99, 5.99, 6.04, 6.04, 6.04, 5.99, 5.99, 5.99, 5.99, 5.57, 5.7, 5.7, 5.7, 5.7, 5.7, 5.7, 5.7, 5.26, 5.26, 5.24, 5.24, 5.24, 5.24, 5.33, 5.33, 4.89, 4.77, 5.24, 5.33, 4.89, 4.3, 3.72, 3.15, 2.44, 2.48, 2.51, 2.53, 3.07, 3.07, 3.2, 3.6, 3.6, 3.82, 3.82, 3.82, 3.39, 3.39, 3.39, 3.39, 3.39, 3.07, 3.07, 4.0, 6.16, 6.8, 7.6, 7.76, 8.17, 8.4, 8.8, 9.42, 10.04, 11.02, 11.04, 11.66, 11.64, 12.26, 12.87, 13.89, 14.88, 15.47, 15.5, 11.6, 8.0, 8.0, 8.24, 9.08, 8.91, 8.19, 8.48, 8.17, 8.21, 8.63, 9.42, 9.42, 9.42, 6.16, 6.16, 6.16, 6.16, 6.16, 6.16, 6.16, 6.16, 6.16, 6.16, 5.99, 5.99, 6.14, 6.14, 6.14, 6.14, 6.14, 5.99, 5.57, 5.57, 5.7, 5.7, 5.7, 5.7, 5.7, 5.7, 5.7, 5.7, 5.7, 5.34, 5.34, 5.34, 5.33, 5.33, 5.33, 5.33, 5.33, 4.89, 4.89, 5.33, 5.33, 4.89, 3.87, 3.72, 3.15, 2.22, 2.48, 2.51, 2.79, 3.07, 3.32, 3.39, 3.39, 3.82, 3.53, 3.53, 3.53, 3.53, 3.53, 3.32, 3.32, 3.32, 3.32, 3.07, 3.6, 5.6, 6.21, 6.82, 7.58, 7.44, 7.81, 7.81, 8.21, 9.43, 9.67, 10.01, 10.63, 10.98, 11.25, 12.26, 13.26, 13.89, 14.51, 16.48, 14.39, 7.07, 8.05, 8.55, 9.08, 9.08, 8.4, 7.6, 7.67, 8.82, 9.42, 9.6, 9.6, 9.6, 6.16, 6.16, 6.16, 6.16, 6.16, 6.16, 6.16, 6.16, 6.16, 6.14, 6.14, 6.14, 6.14, 6.14, 6.14, 6.14, 6.14, 5.7, 5.7, 5.7, 5.7, 5.7, 5.7, 5.7, 5.7, 5.7, 5.7, 5.7, 5.78, 5.78, 5.34, 5.34, 5.34, 5.33, 5.33, 5.33, 4.89, 4.89, 5.33, 5.34, 5.34, 4.89, 3.87, 3.09, 2.86, 2.48, 2.23, 2.79, 3.07, 3.07, 3.32, 3.39, 3.39, 3.53, 3.53, 3.53, 3.58, 3.13, 3.07, 3.07, 3.07, 2.91, 2.91, 2.68, 3.07, 3.35, 6.0, 6.18, 6.45, 6.73, 7.76, 7.76, 7.76, 7.06, 8.38, 9.0, 9.62, 10.63, 11.28, 11.9, 12.89, 13.27, 14.46, 16.31, 10.09, 7.69, 8.24, 8.91, 8.91, 8.8, 8.67, 8.06, 8.82, 9.03, 9.77, 9.9, 9.9, 9.9, 6.16, 6.16, 6.16, 6.16, 6.16, 6.16, 6.16, 6.14, 5.7, 5.7, 5.7, 5.7, 5.7, 5.7, 5.7, 5.7, 5.7, 5.7, 5.7, 5.7, 5.7, 5.7, 5.7, 5.7, 5.7, 5.7, 5.78, 5.78, 5.78, 5.78, 5.34, 5.34, 5.34, 5.33, 5.33, 5.33, 4.89, 4.89, 5.33, 5.34, 5.36, 4.92, 3.87, 3.35, 2.86, 2.86, 2.84, 2.79, 3.07, 3.32, 3.32, 3.53, 3.53, 3.53, 3.53, 3.58, 3.58, 3.13, 2.68, 2.6, 2.6, 2.6, 2.4, 2.8, 2.68, 3.07, 4.98, 5.24, 6.18, 6.79, 7.06, 7.76, 7.68, 6.95, 7.35, 8.31, 9.34, 10.66, 11.28, 11.28, 11.9, 13.27, 14.79, 15.52, 10.4, 8.24, 8.55, 8.4, 8.0, 8.3, 8.93, 8.93, 9.42, 9.77, 9.9, 9.9, 9.9, 9.9, 6.16, 6.16, 6.16, 6.16, 6.16, 6.16, 5.7, 5.7, 5.7, 5.7, 5.7, 5.7, 5.7, 5.7, 5.7, 5.7, 5.7, 5.7, 5.7, 5.7, 5.7, 5.7, 5.7, 5.7, 5.7, 5.7, 5.78, 5.78, 5.78, 5.34, 5.34, 5.34, 5.34, 5.33, 5.33, 4.89, 4.89, 4.89, 5.36, 5.36, 5.36, 4.47, 3.82, 3.35, 2.84, 2.84, 3.14, 3.07, 3.07, 3.32, 3.07, 3.53, 3.53, 3.58, 3.58, 3.58, 3.58, 3.13, 2.68, 2.24, 2.24, 2.17, 2.6, 2.4, 2.4, 2.5, 3.07, 3.72, 5.95, 6.18, 6.79, 7.51, 7.76, 7.68, 6.95, 8.02, 9.0, 10.01, 11.03, 11.03, 11.28, 12.89, 16.95, 15.76, 10.68, 7.89, 7.6, 7.67, 7.69, 8.32, 9.45, 9.84, 9.9, 9.77, 9.9, 10.32, 10.32, 10.32, 5.78, 5.78, 5.78, 5.7, 5.7, 5.7, 5.7, 5.7, 5.7, 5.7, 5.7, 5.7, 5.7, 5.7, 5.7, 5.78, 5.78, 5.78, 5.7, 5.7, 5.7, 5.78, 5.78, 5.78, 5.78, 5.78, 5.78, 5.78, 5.34, 5.34, 5.34, 5.34, 5.34, 5.33, 5.33, 4.89, 4.92, 4.92, 5.36, 5.36, 5.36, 4.47, 3.82, 3.6, 3.14, 3.14, 3.07, 3.07, 3.32, 2.91, 3.07, 3.09, 3.58, 3.58, 3.58, 3.58, 3.58, 2.68, 2.24, 1.79, 1.79, 2.24, 2.12, 2.4, 2.4, 2.15, 2.5, 3.2, 5.6, 6.21, 6.82, 7.2, 7.51, 7.76, 7.76, 7.76, 8.38, 9.34, 10.66, 10.28, 10.63, 11.64, 16.48, 17.47, 12.62, 8.21, 7.82, 8.06, 8.3, 8.88, 10.15, 10.52, 10.18, 9.36, 9.77, 10.15, 10.15, 10.15, 5.78, 5.78, 5.78, 5.78, 5.78, 5.78, 5.78, 5.78, 5.78, 5.78, 5.78, 5.78, 5.78, 5.78, 5.78, 5.78, 5.78, 5.34, 5.34, 5.34, 5.34, 5.78, 5.34, 5.34, 5.78, 5.78, 5.78, 5.34, 5.34, 5.34, 5.34, 5.34, 5.34, 5.33, 5.33, 4.89, 4.92, 4.92, 5.36, 5.36, 5.36, 4.47, 3.82, 3.2, 3.14, 3.07, 3.07, 3.07, 3.32, 3.07, 3.07, 3.09, 3.58, 3.58, 3.58, 3.58, 3.58, 2.68, 2.12, 1.79, 1.79, 1.79, 1.7, 1.86, 1.86, 2.23, 2.4, 2.68, 3.6, 6.16, 6.6, 6.82, 6.79, 7.06, 7.76, 7.41, 7.81, 8.38, 9.4, 10.01, 9.62, 12.89, 15.12, 17.7, 16.45, 10.66, 7.68, 8.88, 9.74, 9.6, 10.25, 10.1, 9.6, 9.77, 10.0, 10.55, 10.55, 10.55, 5.78, 5.78, 5.78, 5.78, 5.78, 5.78, 5.78, 5.78, 5.78, 5.78, 5.78, 5.78, 5.78, 5.78, 5.78, 5.34, 5.34, 5.34, 5.34, 5.34, 5.34, 5.34, 5.34, 5.34, 5.34, 5.34, 5.34, 5.34, 5.33, 5.33, 5.33, 5.33, 5.33, 5.33, 5.33, 5.36, 4.92, 4.92, 5.36, 5.36, 4.92, 4.47, 3.53, 3.2, 3.07, 3.07, 3.07, 3.32, 2.91, 3.07, 3.07, 3.13, 3.58, 3.58, 3.58, 4.02, 3.58, 2.68, 2.12, 1.7, 1.79, 1.34, 1.6, 1.6, 1.86, 1.86, 1.86, 2.4, 3.2, 5.6, 5.95, 6.18, 6.45, 6.32, 7.06, 7.06, 7.51, 7.76, 8.79, 9.04, 10.01, 12.27, 13.87, 16.79, 17.42, 13.87, 9.92, 9.52, 9.74, 9.83, 9.33, 9.6, 9.45, 10.0, 10.4, 10.96, 10.96, 10.96, 5.78, 5.78, 5.78, 5.78, 5.78, 5.78, 5.78, 5.78, 5.78, 5.78, 5.78, 5.78, 5.78, 5.78, 5.34, 5.34, 5.34, 5.34, 5.34, 5.34, 5.34, 5.33, 5.33, 5.33, 5.34, 5.34, 5.33, 5.33, 5.33, 5.33, 5.36, 5.36, 5.36, 5.36, 5.36, 4.92, 4.92, 4.92, 5.36, 5.36, 4.92, 4.47, 3.53, 3.32, 3.07, 3.32, 2.91, 2.91, 2.91, 3.07, 3.07, 3.13, 3.58, 3.58, 3.58, 3.58, 3.58, 3.07, 2.6, 2.12, 1.79, 1.34, 1.2, 1.2, 1.6, 1.26, 1.86, 1.86, 2.5, 4.29, 4.89, 5.49, 5.37, 6.45, 6.73, 7.41, 7.81, 7.15, 7.76, 8.38, 9.67, 11.6, 13.52, 15.24, 16.71, 14.49, 11.66, 10.09, 10.27, 9.49, 8.55, 8.88, 9.52, 10.43, 10.96, 11.5, 11.5, 11.5, 5.78, 5.78, 5.78, 5.78, 5.78, 5.78, 5.78, 5.78, 5.78, 5.78, 5.78, 5.78, 5.34, 5.34, 5.34, 5.33, 5.33, 5.36, 5.36, 5.36, 5.33, 5.33, 5.33, 5.33, 5.33, 5.33, 5.33, 5.33, 5.36, 5.36, 5.36, 5.36, 5.36, 4.92, 4.92, 4.92, 4.92, 4.92, 5.36, 5.36, 4.92, 4.47, 3.53, 3.32, 2.91, 2.91, 2.91, 2.91, 3.07, 3.07, 3.07, 3.13, 3.58, 3.58, 3.58, 3.58, 3.58, 3.07, 2.6, 2.17, 1.79, 1.34, 1.34, 1.34, 1.2, 1.2, 1.6, 1.26, 1.86, 1.88, 3.14, 4.89, 5.49, 6.18, 7.2, 7.44, 7.81, 7.81, 7.82, 8.43, 9.42, 10.85, 12.56, 14.58, 15.24, 13.87, 11.66, 10.53, 10.09, 9.45, 8.88, 8.88, 9.52, 10.63, 11.36, 11.5, 11.5, 11.5, 5.78, 5.78, 5.78, 5.78, 5.78, 5.78, 5.78, 5.78, 5.81, 5.81, 5.81, 5.81, 5.36, 5.36, 5.36, 5.36, 5.36, 5.36, 5.36, 5.33, 5.33, 5.33, 5.33, 5.33, 5.33, 5.33, 5.33, 5.36, 5.36, 5.36, 5.36, 5.36, 4.92, 4.92, 4.92, 4.92, 4.92, 4.92, 4.92, 5.36, 5.36, 4.47, 4.02, 3.07, 2.91, 2.91, 3.07, 3.07, 3.07, 3.07, 3.07, 3.13, 3.58, 3.58, 3.58, 3.58, 3.58, 3.07, 2.63, 2.17, 1.79, 1.34, 0.89, 0.89, 0.89, 0.89, 0.95, 0.95, 1.26, 1.58, 2.4, 4.29, 4.89, 6.9, 6.6, 7.42, 7.82, 7.82, 8.17, 8.3, 9.36, 10.43, 12.3, 13.64, 14.39, 13.27, 11.66, 11.03, 10.19, 9.92, 8.94, 9.3, 9.9, 10.8, 11.47, 11.72, 11.72, 11.72, 5.78, 5.78, 5.78, 5.81, 5.81, 5.81, 5.81, 5.81, 5.81, 5.81, 5.81, 5.36, 5.36, 5.36, 5.36, 5.36, 5.36, 5.36, 5.36, 5.36, 5.33, 5.33, 5.33, 5.36, 5.36, 5.36, 5.36, 5.36, 5.36, 4.92, 4.92, 4.92, 4.92, 4.92, 4.92, 4.92, 4.92, 4.92, 4.92, 5.36, 5.36, 4.92, 4.02, 3.58, 3.07, 2.63, 2.6, 2.63, 2.63, 3.07, 3.13, 3.58, 3.58, 3.58, 3.58, 3.58, 3.58, 3.07, 3.07, 2.68, 2.24, 1.34, 0.89, 0.89, 0.45, 0.45, 0.45, 0.89, 0.63, 1.2, 1.7, 2.4, 3.2, 7.06, 7.12, 7.76, 8.17, 8.21, 8.72, 8.72, 9.66, 10.68, 11.79, 13.11, 13.83, 13.27, 11.6, 10.92, 11.25, 10.98, 10.37, 10.04, 9.9, 10.65, 11.72, 12.3, 12.3, 12.3, 5.78, 5.78, 5.78, 5.81, 5.81, 5.81, 5.81, 5.81, 5.81, 5.81, 5.81, 5.36, 5.36, 5.36, 5.36, 5.36, 5.36, 5.36, 5.36, 5.36, 5.33, 5.33, 5.33, 5.36, 5.36, 5.36, 5.36, 5.36, 5.36, 4.92, 4.92, 4.92, 4.92, 4.92, 4.92, 4.92, 4.92, 4.92, 4.92, 5.36, 5.36, 4.92, 4.02, 3.58, 3.07, 2.63, 2.6, 2.63, 2.63, 3.07, 3.13, 3.58, 3.58, 3.58, 3.58, 3.58, 3.58, 3.07, 3.07, 2.68, 2.24, 1.34, 0.89, 0.89, 0.45, 0.45, 0.45, 0.89, 0.63, 1.2, 1.7, 2.4, 3.2, 7.06, 7.12, 7.76, 7.82, 8.21, 8.72, 8.72, 9.66, 10.68, 11.5, 12.56, 12.86, 12.26, 11.54, 11.54, 11.54, 11.54, 10.92, 10.63, 10.66, 11.6, 11.5, 11.79, 11.79, 11.79]}, {"header": {"dx": 0.06612293990616946, "dy": 0.0552356325346848, "nx": 98, "ny": 59, "la1": 35.046912555036876, "la2": 31.78801023549047, "lo1": -121.43107172385933, "lo2": -114.95102361305473, "refTime": "2026041121", "parameterCategory": 1, "parameterNumber": 3}, "data": [3.49, 3.83, 4.43, 5.01, 5.86, 6.03, 6.8, 7.51, 8.17, 8.21, 8.48, 7.71, 7.76, 7.68, 6.53, 6.18, 6.79, 6.44, 7.2, 7.44, 8.54, 8.37, 8.12, 8.02, 7.9, 7.9, 7.48, 6.98, 6.15, 5.06, 4.5, 4.87, 5.37, 3.77, 0.0, -5.6, -5.36, -4.47, -3.82, -2.95, -2.6, -1.03, 0.0, 2.98, 5.37, 5.89, 6.53, 6.7, 7.36, 8.85, 9.89, 10.92, 10.51, 10.43, 10.01, 9.11, 8.72, 8.18, 8.18, 7.36, 7.36, 6.73, 6.52, 5.55, 5.02, 4.76, 5.02, 6.65, 7.38, 8.3, 8.3, 7.51, 6.56, 6.15, 5.6, 4.93, 4.21, 3.68, 3.42, 3.36, 3.8, 2.99, 1.84, 0.96, 0.0, 0.0, 0.0, 2.57, 6.7, 10.01, 11.04, 11.64, 11.04, 10.63, 10.43, 10.04, 10.41, 11.02, 3.49, 4.12, 4.43, 5.01, 5.49, 5.86, 6.8, 7.51, 7.74, 8.17, 8.64, 9.9, 8.82, 7.35, 7.59, 6.64, 6.82, 7.6, 7.6, 7.42, 8.93, 8.93, 8.73, 9.46, 7.68, 7.97, 7.59, 7.13, 6.31, 6.18, 7.15, 7.82, 8.21, 6.32, 1.84, -4.98, -4.92, -4.02, -3.82, -3.22, -2.4, 0.0, 2.73, 5.06, 6.64, 7.59, 7.48, 8.22, 9.62, 10.98, 11.25, 11.2, 10.43, 9.73, 9.37, 9.11, 8.72, 8.18, 8.18, 7.36, 7.36, 6.52, 5.86, 4.87, 4.87, 4.98, 6.43, 8.3, 9.06, 8.95, 8.18, 6.79, 5.8, 4.93, 4.93, 4.21, 4.21, 3.68, 3.42, 3.36, 3.8, 2.99, 1.84, 0.96, 0.0, 0.0, 0.0, 2.57, 6.7, 10.01, 11.04, 11.64, 11.04, 10.63, 10.43, 10.04, 10.41, 11.02, 3.49, 4.12, 4.12, 4.74, 5.29, 5.86, 6.28, 7.01, 7.74, 8.17, 8.21, 8.48, 8.82, 7.68, 6.53, 6.73, 6.82, 7.35, 8.17, 8.54, 8.0, 8.54, 8.54, 9.48, 10.37, 8.38, 8.03, 7.76, 7.06, 7.81, 8.8, 9.66, 9.36, 7.9, 3.55, -3.79, -4.98, -4.38, -4.34, -4.4, -0.99, 3.48, 7.07, 8.68, 9.0, 9.34, 10.01, 10.63, 11.28, 11.64, 11.6, 10.84, 9.7, 9.7, 8.66, 9.11, 8.72, 8.18, 8.18, 7.36, 6.73, 6.52, 4.87, 4.98, 5.8, 7.51, 9.06, 10.12, 10.01, 8.84, 7.49, 6.65, 4.93, 4.93, 4.21, 4.21, 3.34, 3.44, 2.95, 3.49, 3.6, 1.96, 1.03, 0.0, 0.0, 0.0, 1.65, 6.04, 9.4, 11.04, 11.64, 11.04, 11.02, 10.43, 10.04, 10.04, 10.04, 11.02, 3.22, 3.76, 4.12, 4.74, 5.01, 5.86, 6.28, 7.01, 7.69, 7.74, 8.21, 8.42, 8.82, 6.95, 6.95, 6.73, 7.42, 7.76, 8.3, 8.4, 8.0, 8.0, 7.44, 7.81, 9.43, 10.61, 8.82, 7.81, 7.82, 8.3, 9.49, 9.97, 9.66, 9.32, 6.98, 2.6, -4.02, -4.92, -4.47, -1.4, 4.6, 8.95, 10.96, 11.26, 11.03, 11.03, 11.66, 11.28, 11.64, 11.25, 10.15, 10.12, 9.4, 8.95, 9.24, 8.31, 7.93, 7.59, 7.36, 6.73, 6.73, 5.55, 4.98, 5.93, 8.42, 10.63, 10.84, 10.43, 9.95, 8.85, 7.59, 5.67, 4.93, 4.48, 3.6, 3.34, 3.34, 2.54, 2.6, 2.69, 2.35, 0.95, 0.0, 0.0, 0.0, 1.73, 5.36, 9.43, 11.02, 11.26, 11.03, 10.66, 10.04, 10.04, 9.76, 10.01, 10.66, 11.6, 2.82, 3.47, 4.12, 4.74, 5.01, 5.49, 6.28, 6.79, 7.26, 7.87, 8.17, 8.0, 8.18, 7.4, 7.06, 7.44, 7.89, 8.14, 8.3, 8.72, 9.63, 9.04, 8.63, 9.45, 8.72, 10.46, 10.88, 10.46, 9.86, 8.56, 9.06, 9.24, 8.99, 7.76, 7.68, 7.33, 5.1, 1.84, 0.0, 5.21, 10.18, 12.21, 12.15, 12.23, 12.27, 11.9, 12.27, 11.64, 10.92, 10.58, 10.22, 9.48, 9.36, 8.95, 8.84, 8.31, 7.36, 7.36, 6.73, 5.86, 5.67, 4.81, 6.7, 8.93, 11.66, 12.26, 11.54, 11.47, 10.95, 9.66, 8.29, 7.59, 5.8, 5.11, 4.21, 2.82, 2.54, 2.45, 2.59, 1.73, 0.0, 0.0, 0.0, 0.0, 1.03, 6.01, 10.0, 11.5, 11.6, 11.03, 10.66, 10.01, 10.04, 10.04, 10.01, 10.66, 11.64, 12.15, 2.82, 3.47, 3.84, 4.74, 4.74, 5.29, 5.75, 6.79, 7.4, 7.4, 7.87, 8.0, 7.81, 7.13, 6.79, 7.82, 8.3, 8.48, 8.56, 8.99, 8.72, 8.82, 9.63, 9.97, 9.54, 9.46, 9.97, 10.84, 10.46, 10.46, 8.48, 8.29, 7.63, 6.8, 6.44, 7.06, 6.83, 6.15, 6.04, 9.9, 12.09, 13.8, 12.7, 12.79, 12.86, 12.89, 12.62, 11.6, 10.92, 9.89, 9.17, 9.17, 9.06, 8.66, 8.05, 7.74, 7.13, 6.52, 5.86, 5.67, 4.93, 6.0, 9.4, 12.23, 13.25, 13.26, 12.22, 11.14, 10.54, 9.92, 8.99, 8.29, 7.45, 5.86, 4.1, 3.32, 2.53, 2.44, 1.76, 0.95, -1.05, -0.96, 0.0, 0.0, 4.19, 8.8, 11.27, 11.6, 11.42, 11.03, 11.03, 10.66, 10.01, 10.01, 9.96, 11.66, 12.23, 12.56, 2.82, 3.47, 3.84, 4.12, 4.43, 4.71, 5.37, 6.3, 6.97, 7.4, 7.87, 7.74, 7.82, 7.2, 7.81, 8.17, 8.56, 8.48, 8.56, 8.63, 7.89, 8.14, 8.33, 9.21, 9.11, 8.41, 8.41, 9.03, 9.86, 8.21, 9.04, 8.29, 7.85, 7.12, 7.03, 7.44, 7.35, 7.85, 9.16, 9.9, 12.27, 12.42, 12.45, 13.02, 13.34, 12.27, 12.57, 12.22, 11.25, 10.36, 10.36, 9.17, 9.06, 8.18, 7.25, 7.49, 6.31, 5.8, 4.81, 4.36, 5.14, 8.42, 12.45, 14.05, 14.22, 13.23, 12.5, 10.65, 10.25, 9.92, 8.99, 8.16, 6.8, 5.91, 4.98, 3.96, 2.53, 1.7, 0.89, 0.0, -1.19, -1.05, 0.0, 1.84, 6.55, 9.49, 10.96, 11.04, 11.03, 10.28, 9.92, 9.56, 9.26, 9.96, 10.63, 11.66, 12.23, 12.15, 3.04, 3.47, 3.47, 3.84, 4.12, 4.37, 5.21, 6.3, 6.94, 7.07, 7.51, 7.4, 7.95, 8.17, 8.63, 7.47, 8.14, 8.77, 8.8, 8.56, 7.63, 6.7, 8.0, 8.0, 7.42, 7.5, 7.06, 7.63, 7.81, 7.81, 8.06, 8.41, 8.38, 8.06, 6.94, 6.44, 6.39, 6.18, 8.82, 10.4, 10.88, 10.88, 10.0, 10.16, 10.41, 11.35, 11.28, 12.26, 12.62, 12.11, 9.17, 9.06, 9.06, 8.18, 7.63, 6.43, 5.8, 4.93, 3.32, 3.39, 7.06, 11.61, 14.15, 14.05, 13.87, 13.23, 12.09, 10.65, 8.99, 8.16, 7.2, 5.67, 5.06, 4.13, 3.25, 3.04, 2.45, 0.86, 0.0, 0.0, -1.27, -0.88, 0.0, 2.4, 7.03, 9.74, 10.4, 10.29, 10.3, 9.96, 8.9, 8.22, 9.26, 9.89, 11.64, 11.66, 12.23, 12.15, 3.04, 3.04, 3.47, 3.47, 3.83, 4.11, 4.65, 6.3, 6.94, 7.06, 6.61, 6.61, 8.82, 8.29, 8.0, 8.06, 8.29, 8.45, 8.45, 8.29, 8.82, 8.38, 7.54, 7.52, 6.64, 6.58, 6.58, 7.06, 7.28, 6.52, 7.01, 7.6, 7.94, 7.63, 6.18, 5.37, 5.69, 6.63, 7.81, 8.93, 10.0, 10.0, 10.0, 9.48, 8.94, 8.68, 10.41, 11.72, 12.62, 12.22, 12.46, 10.58, 9.8, 9.36, 8.59, 7.51, 6.7, 5.2, 3.39, 4.74, 10.18, 13.92, 13.72, 13.75, 13.87, 12.5, 11.59, 9.66, 8.06, 6.47, 4.81, 3.64, 2.49, 2.18, 1.5, 1.65, 0.86, 0.89, 0.0, 0.0, -1.27, -2.0, 0.0, 3.47, 7.69, 9.9, 10.15, 9.96, 8.85, 8.16, 7.52, 7.22, 8.9, 10.92, 11.6, 12.27, 11.83, 11.99, 2.82, 3.04, 3.04, 3.22, 3.49, 3.49, 4.65, 5.6, 6.51, 6.51, 6.47, 6.16, 5.34, 5.7, 7.53, 7.81, 7.98, 8.05, 8.49, 8.49, 8.38, 8.38, 8.38, 8.38, 7.89, 7.01, 6.58, 7.01, 7.06, 6.64, 7.01, 7.45, 7.45, 7.47, 6.28, 5.69, 5.06, 5.82, 7.81, 8.37, 7.76, 8.12, 7.76, 7.41, 7.41, 8.67, 9.05, 9.66, 10.58, 11.54, 11.87, 12.62, 12.26, 11.6, 11.28, 10.63, 9.96, 7.78, 5.46, 7.81, 13.01, 15.56, 16.0, 14.71, 13.51, 12.09, 11.19, 9.78, 8.01, 5.73, 4.13, 3.66, 3.04, 2.14, 0.77, 0.0, 0.0, 0.94, 0.96, 1.13, 0.98, 2.47, 0.89, 5.59, 8.94, 9.92, 9.56, 8.85, 7.8, 6.71, 6.79, 7.94, 10.01, 11.28, 11.6, 11.66, 11.99, 11.6, 2.16, 2.82, 2.82, 2.82, 3.08, 3.22, 4.37, 5.6, 6.3, 6.47, 6.04, 5.99, 5.51, 5.24, 6.88, 7.08, 7.08, 4.92, 4.02, 3.98, 5.73, 5.94, 5.94, 6.0, 7.06, 7.45, 7.01, 7.45, 6.8, 6.8, 6.08, 6.0, 6.4, 5.95, 5.06, 5.69, 6.63, 7.44, 7.15, 6.95, 6.95, 7.06, 6.73, 7.81, 7.76, 8.05, 8.06, 8.38, 9.04, 10.01, 12.86, 14.26, 14.85, 15.66, 15.24, 15.24, 15.35, 11.9, 8.73, 11.61, 15.78, 16.76, 15.66, 15.19, 14.49, 14.2, 13.74, 13.04, 11.38, 9.24, 8.18, 6.67, 5.99, 3.07, 0.76, 0.0, 0.0, 2.4, 4.29, 5.58, 6.39, 7.59, 8.85, 8.22, 9.9, 9.53, 8.79, 8.09, 6.62, 6.79, 7.59, 9.34, 10.66, 10.98, 10.98, 11.03, 11.02, 10.63, 2.16, 2.36, 2.82, 2.82, 3.08, 3.08, 4.11, 5.21, 6.3, 6.3, 5.81, 5.81, 5.31, 5.09, 4.77, 4.34, 4.3, 3.98, 3.53, 3.07, 2.91, 2.68, 2.53, 4.74, 6.0, 6.0, 6.07, 3.07, 4.8, 4.74, 5.69, 5.84, 6.18, 5.37, 4.58, 5.37, 6.06, 6.73, 6.64, 6.18, 6.18, 6.32, 6.11, 7.6, 7.6, 7.76, 8.93, 9.6, 10.4, 11.44, 12.45, 14.05, 15.77, 16.96, 16.96, 17.19, 17.26, 13.88, 11.03, 13.44, 17.13, 17.39, 16.19, 15.35, 15.99, 17.08, 19.07, 18.68, 17.47, 15.5, 13.05, 11.06, 7.93, 3.42, 0.0, -0.95, 1.8, 5.4, 7.42, 8.58, 10.63, 10.51, 10.75, 9.8, 9.8, 9.43, 8.01, 6.87, 6.71, 6.79, 8.27, 9.57, 9.56, 9.89, 9.96, 10.01, 9.4, 10.04, 2.16, 2.16, 2.36, 2.82, 2.82, 3.08, 3.83, 5.21, 6.0, 5.81, 5.81, 5.4, 5.31, 4.9, 4.6, 4.19, 4.11, 3.6, 3.07, 2.91, 2.4, 1.9, 1.2, 1.88, 1.88, 2.21, 1.9, 1.58, 1.58, 1.61, 2.99, 4.58, 4.42, 4.42, 4.42, 5.37, 5.37, 6.01, 6.32, 5.36, 5.36, 5.69, 5.82, 5.82, 7.21, 8.17, 9.54, 9.97, 9.97, 9.63, 9.83, 10.1, 11.4, 12.05, 13.36, 13.88, 13.99, 13.23, 10.58, 13.01, 16.36, 16.27, 15.24, 15.11, 16.6, 17.79, 19.23, 19.99, 19.02, 17.73, 16.06, 13.67, 9.77, 3.55, -0.89, 0.0, 6.45, 9.03, 9.84, 10.81, 10.78, 10.65, 9.58, 9.77, 10.65, 8.99, 7.63, 5.86, 6.79, 7.52, 8.93, 8.9, 8.9, 9.26, 8.93, 8.64, 8.73, 9.81, 2.16, 2.16, 2.36, 2.36, 2.82, 2.82, 3.49, 4.94, 5.6, 5.81, 5.6, 5.08, 5.08, 4.69, 4.8, 4.4, 4.11, 3.35, 3.14, 2.79, 2.21, 1.61, 1.2, 0.65, 0.65, 0.0, 0.0, 0.0, 0.0, 0.6, 1.2, 3.63, 4.56, 4.58, 4.42, 5.37, 5.77, 6.45, 5.53, 4.5, 5.24, 5.15, 6.13, 7.21, 7.21, 8.17, 7.85, 8.6, 8.6, 8.22, 8.22, 8.17, 8.49, 8.49, 8.41, 7.21, 7.21, 7.95, 10.47, 11.61, 13.83, 14.95, 15.44, 15.44, 14.58, 14.3, 13.74, 14.14, 14.67, 13.8, 13.91, 12.31, 8.03, 3.44, 0.94, 6.6, 11.02, 12.26, 12.42, 11.59, 10.83, 9.12, 8.26, 7.48, 8.76, 8.29, 7.25, 6.84, 7.52, 8.53, 8.16, 8.22, 8.22, 8.53, 7.9, 8.64, 8.73, 10.43, 2.16, 2.16, 2.32, 2.32, 2.36, 2.82, 3.49, 4.71, 5.6, 5.6, 5.08, 5.08, 5.08, 4.55, 4.55, 4.4, 3.88, 3.72, 3.35, 2.84, 2.51, 1.61, 1.2, 0.54, 0.0, 0.0, 0.0, 0.0, 0.0, 0.0, 0.95, 2.5, 4.29, 5.69, 5.69, 7.44, 7.81, 6.01, 5.21, 4.42, 4.58, 6.52, 6.64, 7.63, 8.06, 8.06, 8.48, 7.63, 7.63, 7.63, 7.2, 7.21, 7.06, 6.71, 6.14, 5.01, 3.68, 4.6, 8.16, 11.56, 11.06, 11.03, 10.55, 10.94, 11.33, 10.55, 10.55, 9.3, 8.53, 9.21, 9.66, 9.18, 5.61, 3.23, 6.31, 11.88, 13.85, 12.96, 12.13, 11.37, 9.67, 8.39, 6.6, 5.9, 4.39, 6.73, 7.63, 8.42, 8.85, 9.06, 9.17, 8.22, 8.6, 8.57, 8.53, 10.04, 11.6, 11.6, 2.16, 2.32, 2.8, 2.8, 2.8, 2.82, 3.49, 4.71, 5.21, 5.47, 5.08, 4.65, 4.65, 4.55, 4.55, 4.0, 3.78, 3.43, 3.43, 3.16, 2.23, 1.33, 0.53, 0.0, -0.54, -0.71, -0.6, -0.89, -0.45, 0.0, 1.34, 3.07, 3.78, 5.37, 6.9, 6.82, 6.79, 5.69, 5.31, 5.69, 5.15, 6.6, 8.06, 8.48, 8.48, 8.48, 8.48, 7.6, 6.8, 7.06, 6.8, 6.52, 6.13, 6.23, 4.84, 3.76, 3.68, 5.44, 9.48, 9.77, 8.43, 7.21, 7.21, 6.95, 6.3, 6.01, 6.73, 6.95, 6.98, 6.94, 6.2, 5.15, 4.04, 5.86, 11.6, 14.5, 13.91, 12.59, 10.6, 9.55, 8.74, 7.4, 5.62, 5.11, 4.13, 5.29, 7.51, 9.48, 9.8, 9.7, 9.36, 8.93, 8.9, 8.85, 9.57, 10.53, 11.69, 11.69, 2.32, 2.8, 2.8, 3.0, 2.8, 3.04, 3.49, 4.71, 5.21, 5.08, 4.65, 4.65, 4.65, 4.29, 4.29, 3.73, 3.78, 4.0, 4.07, 2.86, 1.76, 0.59, 0.0, 0.0, -1.2, -1.86, -1.79, -1.7, -1.2, 0.45, 2.63, 3.88, 4.37, 6.9, 6.21, 6.44, 6.82, 7.28, 6.44, 6.9, 7.28, 7.53, 8.22, 7.53, 8.48, 8.48, 8.0, 8.0, 6.63, 5.72, 5.36, 5.36, 5.72, 5.72, 5.06, 3.68, 4.75, 5.44, 6.01, 6.69, 5.98, 4.96, 3.8, 3.52, 3.52, 3.79, 4.75, 4.75, 5.98, 5.6, 4.66, 3.9, 5.61, 9.66, 12.42, 12.96, 12.19, 11.54, 9.66, 8.96, 8.12, 7.4, 6.4, 5.2, 6.0, 6.7, 7.78, 9.8, 9.7, 10.12, 9.53, 8.9, 9.56, 10.19, 10.63, 11.12, 11.75, 11.75, 2.8, 3.0, 3.0, 3.0, 2.8, 3.04, 3.49, 4.37, 4.84, 4.65, 4.65, 4.65, 4.07, 4.07, 4.07, 3.48, 4.0, 4.55, 4.11, 2.84, 0.55, 0.0, 1.2, 1.16, 0.0, -1.7, -2.24, -1.34, 0.0, 2.17, 4.11, 4.55, 4.55, 4.37, 4.55, 5.58, 6.0, 6.8, 6.44, 6.9, 7.28, 8.48, 8.06, 8.48, 8.0, 8.0, 7.44, 6.98, 6.01, 5.69, 5.36, 5.01, 5.01, 5.36, 5.37, 3.91, 5.03, 5.03, 4.71, 4.44, 4.66, 3.7, 3.52, 3.52, 3.52, 3.2, 2.47, 2.49, 3.52, 4.48, 4.66, 5.87, 7.34, 8.86, 9.92, 9.23, 8.83, 9.13, 8.07, 7.46, 7.4, 7.53, 6.73, 7.36, 8.3, 8.3, 8.3, 8.3, 9.06, 10.51, 10.92, 10.3, 9.56, 10.81, 11.64, 11.64, 10.81, 10.81, 2.77, 2.77, 2.77, 2.77, 2.32, 3.04, 3.49, 4.37, 4.65, 4.65, 4.07, 4.07, 4.07, 4.07, 4.07, 4.74, 4.0, 4.55, 4.11, 2.18, 0.59, 1.86, 3.87, 4.89, 3.79, 1.8, 0.0, 2.53, 4.29, 4.8, 5.08, 4.65, 4.29, 4.0, 4.0, 3.72, 3.35, 3.14, 4.89, 6.08, 5.49, 5.84, 7.28, 7.28, 7.44, 6.98, 6.32, 5.31, 5.31, 5.69, 5.06, 5.36, 5.36, 5.06, 5.37, 5.31, 5.03, 4.71, 5.21, 4.88, 4.88, 4.88, 3.7, 3.27, 3.27, 3.4, 2.51, 2.4, 3.06, 4.54, 5.92, 7.8, 8.14, 6.64, 4.85, 3.22, 2.45, 3.26, 4.79, 5.72, 5.62, 6.52, 7.25, 8.29, 8.31, 8.18, 7.38, 7.8, 8.85, 9.53, 10.51, 10.58, 10.63, 10.81, 12.26, 11.95, 11.25, 11.25, 2.29, 2.29, 2.29, 2.29, 2.32, 2.82, 3.83, 4.37, 4.65, 4.41, 4.07, 3.79, 3.79, 3.79, 3.48, 3.48, 4.0, 4.0, 4.74, 3.97, 4.11, 4.3, 5.24, 6.16, 5.58, 5.58, 5.24, 4.55, 5.01, 5.21, 4.65, 4.29, 4.07, 4.0, 3.43, 3.16, 2.53, 2.23, 2.51, 2.86, 3.49, 3.49, 3.49, 4.43, 4.71, 5.59, 5.31, 5.31, 4.37, 4.56, 5.06, 5.72, 5.06, 5.37, 5.06, 5.24, 6.01, 5.59, 5.21, 5.1, 4.88, 4.66, 4.44, 4.0, 3.4, 3.91, 4.12, 4.0, 4.92, 4.58, 5.45, 6.68, 5.76, 3.22, 0.0, -1.64, -2.44, -2.44, 1.63, 4.04, 5.73, 6.73, 7.36, 8.31, 7.36, 6.67, 7.63, 8.49, 8.53, 9.56, 9.89, 10.92, 10.58, 11.64, 11.45, 11.47, 10.43, 10.43, 2.29, 2.29, 2.29, 2.14, 2.32, 2.82, 4.11, 4.11, 4.41, 4.07, 3.79, 3.49, 3.49, 3.49, 3.48, 3.48, 3.43, 3.43, 3.43, 4.74, 5.49, 5.08, 4.8, 3.88, 3.43, 3.48, 4.07, 4.07, 4.07, 4.07, 4.07, 3.73, 3.73, 3.48, 3.48, 2.86, 2.84, 2.51, 2.51, 2.23, 2.44, 3.12, 3.49, 4.11, 4.37, 6.01, 5.31, 4.37, 4.37, 5.37, 6.08, 6.52, 6.28, 6.28, 6.63, 6.11, 5.89, 5.49, 5.98, 5.21, 5.21, 5.21, 4.96, 4.96, 4.26, 4.12, 4.96, 5.64, 6.57, 6.56, 7.23, 6.64, 5.63, 1.58, -2.43, -4.87, -5.2, -3.23, 0.0, 3.23, 5.73, 7.45, 8.29, 7.48, 6.52, 7.38, 9.17, 9.83, 10.15, 8.9, 9.96, 10.58, 10.51, 10.15, 10.43, 10.07, 9.37, 9.37, 2.29, 2.29, 1.65, 1.65, 2.16, 3.08, 3.49, 4.11, 3.79, 3.79, 3.49, 3.49, 3.49, 3.49, 3.2, 3.48, 3.16, 3.16, 3.16, 2.86, 3.48, 4.07, 3.48, 3.16, 2.84, 2.84, 3.16, 3.16, 3.16, 3.43, 3.43, 3.43, 3.48, 3.48, 3.15, 2.86, 2.86, 2.23, 2.23, 2.23, 2.86, 2.86, 3.49, 3.79, 4.37, 4.71, 5.31, 4.14, 4.14, 5.69, 6.9, 6.63, 6.63, 6.63, 6.63, 6.32, 6.64, 6.95, 6.3, 5.21, 5.1, 4.96, 4.12, 4.12, 4.12, 5.1, 5.89, 6.53, 7.18, 9.17, 9.5, 10.43, 9.98, 4.98, -1.98, -1.55, -1.67, -1.52, 0.0, 2.95, 5.86, 7.38, 8.03, 7.93, 8.57, 10.12, 11.6, 11.54, 10.78, 9.53, 9.56, 10.18, 10.12, 10.12, 9.37, 8.94, 8.95, 8.95, 1.76, 1.76, 1.65, 1.8, 2.36, 2.84, 3.49, 3.79, 3.79, 3.49, 3.49, 3.49, 3.12, 3.12, 3.2, 3.48, 3.15, 2.86, 2.86, 2.86, 2.86, 2.86, 3.16, 2.84, 2.84, 2.84, 2.84, 3.16, 3.16, 3.16, 3.16, 3.16, 3.16, 2.86, 2.86, 2.86, 2.86, 2.86, 2.86, 2.86, 2.86, 3.15, 3.48, 4.07, 4.41, 4.37, 5.31, 4.14, 5.69, 7.28, 8.0, 7.44, 6.98, 6.98, 6.63, 6.01, 6.73, 7.35, 6.58, 4.68, 4.68, 5.1, 5.36, 5.36, 6.18, 6.18, 6.64, 6.64, 6.53, 7.97, 9.17, 10.12, 9.07, 6.8, 4.2, 2.18, 1.6, 0.78, 1.5, 2.25, 3.6, 5.02, 5.62, 8.43, 11.47, 13.23, 12.87, 12.57, 12.5, 11.76, 9.85, 9.48, 9.37, 8.94, 8.66, 7.93, 8.37, 8.37, 1.76, 1.76, 1.65, 1.65, 2.36, 2.84, 3.49, 3.49, 3.49, 3.49, 3.49, 3.12, 3.12, 3.12, 2.86, 3.15, 3.15, 3.15, 2.86, 2.86, 2.86, 2.84, 2.84, 2.84, 2.84, 2.84, 2.84, 2.84, 2.84, 2.84, 2.84, 3.16, 3.16, 2.86, 2.86, 2.86, 2.86, 2.86, 2.86, 2.86, 2.86, 2.86, 3.48, 4.07, 4.07, 3.79, 5.03, 5.69, 6.63, 6.63, 6.98, 6.63, 6.63, 6.63, 6.63, 6.63, 6.11, 7.06, 6.95, 6.32, 5.37, 5.69, 5.89, 6.48, 6.95, 6.95, 6.95, 7.59, 6.95, 6.53, 6.42, 5.71, 8.3, 10.65, 8.84, 4.66, 1.17, 0.0, 0.0, 0.0, 0.0, 0.74, 3.6, 8.79, 12.89, 13.63, 13.23, 12.84, 12.78, 13.04, 10.75, 9.37, 8.66, 7.93, 7.44, 8.01, 8.09, 8.09, 1.76, 1.76, 1.65, 1.12, 1.67, 2.18, 3.49, 3.49, 3.49, 3.12, 2.84, 2.84, 2.84, 3.12, 2.86, 2.86, 2.86, 2.86, 3.15, 2.86, 2.86, 2.23, 2.51, 2.51, 2.51, 2.51, 2.51, 2.51, 2.51, 2.51, 2.51, 2.84, 2.84, 2.23, 2.48, 2.48, 2.86, 2.86, 2.86, 2.86, 2.86, 2.86, 3.48, 3.79, 3.49, 3.49, 2.84, 3.08, 3.22, 2.82, 3.08, 5.03, 5.69, 6.28, 6.63, 6.98, 6.98, 5.77, 6.32, 6.87, 6.64, 5.69, 6.32, 6.18, 6.95, 6.95, 7.68, 7.59, 7.59, 4.71, 3.91, 3.78, 7.88, 10.56, 10.65, 8.14, 2.89, 0.0, -2.28, -2.49, -1.45, 0.0, 6.05, 10.73, 12.86, 12.26, 12.22, 12.16, 12.42, 12.33, 12.42, 9.5, 8.1, 7.38, 7.36, 7.36, 8.16, 8.16, 1.2, 1.2, 1.12, 1.12, 1.67, 2.4, 3.12, 3.2, 3.2, 3.12, 2.84, 2.84, 2.84, 3.12, 2.86, 2.86, 2.86, 2.86, 2.86, 2.86, 2.48, 2.23, 2.23, 2.51, 2.23, 2.23, 2.23, 1.84, 2.23, 2.23, 2.51, 2.51, 2.23, 2.23, 2.23, 2.23, 2.23, 2.23, 2.23, 2.23, 2.23, 2.48, 3.15, 3.2, 3.49, 2.84, 2.4, 2.4, 1.7, 1.73, 1.76, 2.86, 5.69, 7.28, 6.98, 6.98, 6.63, 6.28, 6.63, 7.21, 6.95, 6.58, 5.53, 5.89, 6.18, 6.95, 7.68, 7.59, 6.7, 4.8, 4.01, 3.53, 5.62, 8.71, 10.56, 11.71, 7.22, 0.71, -2.69, -2.67, -0.94, 3.09, 9.27, 11.88, 11.75, 12.26, 12.22, 11.79, 11.38, 10.65, 11.37, 10.8, 8.85, 7.73, 8.16, 8.42, 8.16, 8.16, 1.1, 1.1, 1.12, 1.12, 1.67, 2.4, 3.49, 3.2, 2.86, 3.12, 2.84, 2.84, 2.84, 3.12, 2.86, 2.86, 2.86, 2.86, 2.86, 2.86, 2.48, 2.48, 1.8, 1.84, 2.23, 2.23, 1.84, 1.84, 1.84, 1.84, 1.84, 1.13, 1.13, 1.13, 1.13, 1.8, 1.8, 1.6, 1.6, 1.6, 1.8, 1.8, 2.86, 3.49, 2.84, 2.84, 2.4, 1.73, 1.08, 1.11, 2.51, 3.78, 4.55, 4.84, 6.18, 5.69, 6.63, 6.28, 6.18, 6.01, 6.58, 6.18, 6.58, 6.32, 7.27, 7.06, 7.68, 6.7, 6.0, 4.87, 4.06, 3.23, 4.0, 5.79, 8.96, 10.56, 9.87, 5.17, 0.85, 0.0, 1.84, 6.79, 10.52, 11.34, 11.16, 11.17, 11.47, 10.95, 9.77, 9.77, 9.5, 10.43, 10.43, 8.95, 8.09, 8.09, 7.36, 7.36, 1.1, 1.1, 1.2, 1.12, 1.67, 2.4, 3.49, 3.2, 3.2, 2.84, 2.84, 2.84, 2.84, 2.84, 2.84, 2.86, 2.86, 2.86, 2.86, 2.22, 2.22, 1.76, 1.76, 1.8, 1.84, 1.88, 1.88, 1.88, 1.88, 1.16, 1.16, 0.61, 0.59, 1.13, 1.13, 1.13, 1.6, 1.6, 1.6, 1.8, 1.8, 2.48, 2.86, 3.22, 3.49, 3.49, 2.18, 1.73, 1.11, 2.51, 4.27, 4.93, 4.65, 4.65, 4.65, 5.37, 5.69, 6.28, 6.55, 6.01, 5.36, 5.76, 5.89, 7.06, 7.06, 7.59, 6.7, 5.9, 5.14, 4.87, 3.96, 2.54, 2.45, 2.53, 4.13, 5.01, 7.38, 8.94, 6.54, 3.29, 3.63, 4.4, 7.4, 10.68, 10.19, 9.48, 9.37, 9.25, 8.06, 8.18, 8.57, 8.99, 10.71, 9.66, 8.73, 8.01, 7.28, 7.28, 1.1, 1.1, 1.2, 1.12, 1.67, 2.4, 3.2, 3.2, 3.2, 2.86, 2.84, 2.84, 2.84, 2.84, 2.84, 2.2, 2.2, 2.44, 2.44, 2.22, 2.22, 1.76, 1.08, 1.23, 1.6, 1.84, 2.21, 2.5, 1.88, 1.16, 0.61, 0.61, 0.61, 0.61, 1.16, 1.16, 1.84, 1.6, 1.8, 1.8, 1.58, 2.22, 2.86, 5.06, 5.37, 3.76, 1.7, 2.48, 4.27, 4.27, 5.08, 5.21, 4.65, 4.41, 4.07, 4.07, 5.69, 6.28, 5.37, 5.53, 5.36, 5.36, 5.89, 6.95, 6.95, 7.13, 6.98, 5.29, 3.36, 3.39, 3.32, 3.34, 2.45, 1.64, 0.0, 0.82, 4.12, 8.02, 10.2, 7.22, 4.33, 3.73, 6.1, 6.95, 8.53, 7.28, 6.57, 6.4, 6.4, 7.13, 7.25, 7.36, 7.25, 8.85, 8.2, 7.54, 7.54, 7.54, 1.1, 1.1, 1.2, 1.12, 1.67, 2.4, 2.86, 3.2, 3.2, 3.12, 2.84, 2.84, 2.4, 2.4, 2.4, 2.4, 2.2, 2.2, 2.44, 2.22, 2.22, 1.76, 1.19, 1.16, 1.16, 1.11, 1.61, 1.88, 1.61, 1.16, 0.53, 0.65, 1.2, 1.61, 1.88, 1.88, 1.84, 2.23, 2.23, 1.8, 1.76, 2.22, 2.86, 4.0, 4.65, 4.68, 3.55, 4.07, 5.08, 5.21, 4.65, 4.41, 4.65, 4.07, 4.07, 3.79, 3.49, 3.49, 4.87, 5.37, 5.24, 5.1, 5.89, 6.18, 6.04, 6.04, 6.7, 7.51, 5.06, 2.7, 3.25, 4.93, 5.73, 3.36, 0.0, 0.0, 1.66, 4.07, 8.02, 9.13, 7.4, 5.38, 6.23, 5.41, 4.45, 4.48, 3.73, 2.87, 3.53, 4.39, 5.1, 5.11, 5.71, 7.45, 7.34, 7.44, 7.93, 7.93, 1.1, 1.1, 1.2, 1.12, 1.67, 2.4, 2.86, 3.2, 2.86, 3.12, 2.84, 2.4, 2.4, 2.4, 2.4, 2.4, 2.4, 2.2, 2.2, 2.44, 1.76, 1.76, 1.73, 1.16, 1.14, 1.16, 1.11, 1.8, 1.8, 1.13, 1.16, 1.9, 2.5, 2.68, 2.79, 2.79, 2.53, 2.51, 2.23, 2.23, 2.48, 2.48, 2.86, 3.43, 3.48, 4.58, 5.37, 4.71, 4.71, 4.11, 3.49, 3.48, 3.48, 3.79, 3.49, 3.49, 2.86, 2.86, 3.12, 4.58, 4.42, 4.5, 5.36, 5.21, 5.21, 5.36, 5.89, 7.27, 6.97, 5.32, 4.34, 5.76, 6.52, 5.72, 1.59, -0.83, 0.0, 1.71, 4.19, 7.45, 9.46, 9.68, 6.71, 5.06, 2.83, 1.67, 0.0, 0.0, 1.48, 2.25, 3.07, 3.82, 4.31, 5.9, 6.48, 7.34, 8.66, 8.66, 1.1, 1.1, 1.2, 1.12, 1.67, 2.4, 2.86, 2.86, 2.86, 2.61, 2.4, 2.4, 2.4, 2.4, 2.4, 2.4, 2.4, 2.4, 2.2, 2.2, 1.94, 1.73, 1.19, 1.16, 1.14, 1.14, 1.16, 1.73, 3.0, 1.76, 2.23, 2.79, 3.6, 3.6, 3.35, 3.14, 3.14, 2.84, 2.51, 2.23, 2.23, 2.23, 2.86, 3.43, 2.86, 2.86, 3.49, 3.49, 3.22, 2.86, 2.86, 2.86, 2.86, 2.86, 3.15, 2.86, 2.86, 2.86, 2.86, 3.12, 3.77, 4.26, 4.34, 4.0, 4.56, 4.5, 4.42, 5.46, 5.92, 4.9, 5.29, 4.07, 4.65, 4.79, 3.35, 0.0, 0.0, 1.76, 2.39, 5.17, 8.56, 9.41, 8.29, 4.51, 2.9, 1.05, 0.0, -0.58, 0.85, 2.21, 2.95, 3.68, 5.2, 6.48, 7.25, 8.1, 8.58, 8.58, 1.2, 1.2, 1.12, 1.12, 1.67, 2.4, 2.86, 2.86, 2.86, 2.61, 2.4, 2.4, 2.18, 2.18, 2.4, 2.4, 2.4, 2.4, 2.4, 2.2, 1.73, 1.73, 1.16, 1.16, 1.14, 1.14, 1.05, 1.16, 1.7, 2.82, 3.15, 3.43, 3.43, 3.35, 3.14, 3.14, 3.14, 3.14, 2.51, 2.51, 2.23, 2.51, 2.84, 3.16, 3.15, 2.86, 2.22, 1.76, 2.22, 2.48, 2.84, 2.84, 3.16, 2.86, 2.86, 2.86, 2.86, 2.86, 2.86, 3.12, 3.08, 3.6, 5.21, 4.5, 4.34, 4.5, 3.6, 3.4, 4.05, 4.72, 5.0, 3.95, 1.63, 1.63, 3.29, 3.24, 2.44, 2.51, 2.18, 2.85, 4.37, 5.98, 5.73, 5.02, 2.87, 2.19, 1.14, 1.08, 3.65, 4.3, 4.17, 4.48, 5.8, 6.69, 7.48, 8.43, 8.1, 8.1, 1.12, 1.12, 1.12, 1.12, 1.67, 2.4, 2.86, 2.86, 2.86, 2.2, 2.4, 2.4, 2.18, 2.18, 2.18, 2.4, 1.7, 2.4, 2.4, 2.2, 1.73, 1.73, 1.16, 1.16, 0.58, 0.58, 1.05, 1.16, 1.7, 2.18, 2.84, 2.86, 2.23, 2.23, 2.53, 2.79, 2.79, 2.84, 2.51, 2.23, 2.23, 2.23, 2.84, 2.86, 2.86, 2.22, 1.76, 1.8, 1.8, 2.51, 2.84, 3.72, 3.43, 3.16, 2.86, 3.15, 2.86, 2.86, 3.12, 2.84, 4.14, 4.37, 5.31, 4.96, 4.26, 4.5, 4.12, 3.45, 3.7, 4.8, 5.63, 4.9, 2.37, 0.0, 2.47, 4.79, 4.04, 2.54, 0.74, 0.72, 0.72, 1.48, 2.85, 3.53, 4.31, 4.03, 4.08, 3.84, 5.51, 5.6, 5.6, 5.8, 5.8, 6.48, 6.69, 7.48, 7.48, 7.48, 1.12, 1.12, 1.12, 1.12, 1.14, 2.2, 2.44, 2.86, 2.44, 2.2, 2.4, 2.18, 2.18, 2.18, 2.36, 2.18, 2.18, 2.18, 2.4, 1.73, 1.73, 1.16, 1.16, 1.14, 0.58, 0.53, 1.16, 1.16, 1.7, 1.7, 1.88, 1.73, 1.76, 1.6, 1.84, 2.23, 2.23, 2.51, 2.51, 2.23, 1.84, 2.51, 2.86, 2.44, 2.2, 1.76, 1.8, 1.84, 2.23, 3.14, 3.72, 3.88, 3.43, 3.43, 3.15, 3.15, 2.86, 2.86, 2.4, 2.4, 2.84, 4.37, 4.37, 4.0, 4.0, 4.2, 4.12, 3.49, 3.32, 4.07, 4.6, 4.48, 3.53, 1.67, 2.44, 4.1, 4.95, 3.2, 1.66, 0.0, 0.0, 0.74, 1.44, 3.6, 5.1, 5.09, 5.72, 7.25, 7.25, 6.9, 6.31, 6.31, 5.67, 4.94, 5.11, 4.38, 5.81, 5.81, 1.12, 1.12, 1.12, 1.12, 1.14, 1.73, 2.44, 2.22, 2.44, 2.2, 2.2, 2.18, 2.18, 1.7, 2.36, 2.36, 2.36, 2.18, 2.18, 1.88, 1.7, 1.16, 1.05, 0.58, 0.58, 0.53, 1.16, 1.16, 1.7, 1.7, 1.73, 1.73, 1.57, 1.11, 1.8, 1.8, 1.8, 1.8, 2.23, 2.23, 1.8, 2.23, 2.22, 2.2, 2.44, 2.22, 2.23, 2.23, 3.14, 3.88, 4.27, 4.0, 4.0, 3.48, 3.15, 2.86, 2.86, 2.86, 2.4, 2.2, 2.2, 2.4, 2.69, 2.83, 3.45, 3.7, 3.63, 3.49, 3.32, 3.32, 3.61, 4.13, 3.47, 3.22, 2.5, 3.17, 4.91, 4.95, 3.38, 2.28, 2.21, 2.21, 2.31, 3.85, 5.77, 7.28, 7.79, 8.05, 7.69, 7.01, 6.2, 5.55, 4.71, 4.0, 3.66, 3.66, 4.38, 4.38, 1.2, 1.2, 1.12, 1.12, 1.14, 1.73, 2.22, 2.22, 2.22, 1.94, 1.73, 1.88, 1.7, 1.7, 1.84, 1.67, 1.84, 1.84, 1.7, 1.7, 1.16, 1.05, 0.58, 0.58, 0.53, 1.16, 1.16, 1.7, 1.7, 1.73, 1.73, 1.73, 1.73, 1.73, 1.76, 1.76, 1.76, 1.76, 1.76, 1.76, 1.76, 2.23, 2.22, 3.0, 2.86, 2.86, 2.86, 3.35, 4.11, 4.4, 4.0, 4.0, 3.78, 3.48, 3.15, 2.86, 2.86, 2.44, 2.4, 2.2, 2.2, 2.4, 2.69, 2.83, 3.45, 2.7, 2.69, 3.32, 3.45, 3.45, 3.32, 3.95, 4.74, 5.86, 3.98, 2.54, 3.34, 4.16, 4.81, 4.55, 4.4, 3.69, 3.69, 4.5, 6.09, 6.44, 7.44, 6.9, 6.2, 5.73, 4.76, 4.61, 3.78, 3.25, 3.34, 3.04, 2.87, 3.66, 1.1, 1.1, 1.2, 1.12, 1.14, 1.7, 1.73, 1.76, 1.76, 1.76, 1.73, 1.19, 1.19, 1.16, 1.16, 1.7, 1.67, 1.84, 1.7, 1.16, 1.14, 0.58, 0.58, 0.58, 0.53, 1.16, 1.16, 1.7, 1.55, 1.19, 1.19, 1.73, 1.73, 1.73, 1.73, 1.73, 1.73, 1.57, 1.76, 1.76, 1.76, 1.76, 2.22, 3.72, 3.49, 3.15, 3.43, 4.27, 4.4, 4.27, 4.0, 3.78, 3.48, 3.15, 2.86, 2.86, 2.86, 2.44, 2.4, 2.2, 2.2, 2.2, 2.54, 2.67, 2.54, 2.58, 3.7, 3.63, 4.0, 4.0, 4.0, 4.8, 4.58, 5.72, 6.52, 4.04, 1.71, 1.65, 2.87, 4.48, 5.2, 5.2, 5.2, 6.09, 5.99, 6.44, 5.8, 5.67, 4.71, 3.91, 3.91, 3.78, 3.25, 3.34, 2.45, 2.22, 2.22, 2.87, 1.1, 1.1, 1.63, 1.76, 1.65, 1.67, 1.7, 1.73, 1.76, 1.76, 1.73, 1.19, 1.19, 1.07, 1.16, 1.16, 1.16, 1.16, 1.05, 0.58, 0.58, 0.58, 0.58, 0.58, 0.53, 1.16, 1.16, 1.7, 1.7, 1.07, 1.19, 1.19, 1.73, 1.73, 1.73, 1.73, 1.73, 1.73, 1.57, 1.76, 1.76, 1.76, 1.8, 2.86, 5.06, 3.48, 4.27, 4.8, 4.8, 4.0, 3.43, 3.43, 3.16, 2.86, 2.86, 2.44, 2.44, 2.2, 2.2, 2.2, 2.44, 2.2, 1.7, 2.69, 2.69, 2.83, 3.45, 4.34, 5.21, 5.06, 5.06, 4.25, 4.81, 5.85, 8.4, 7.6, 4.0, 0.86, 1.69, 3.69, 5.0, 5.89, 5.89, 5.89, 5.68, 5.29, 5.02, 3.87, 3.14, 3.14, 3.14, 3.14, 2.39, 2.45, 1.6, 1.71, 1.48, 2.22, 1.63, 1.63, 1.63, 1.63, 1.63, 1.76, 1.8, 1.7, 1.73, 1.7, 1.7, 1.07, 1.07, 1.07, 1.07, 0.59, 0.59, 0.59, 0.53, 0.53, 0.58, 0.58, 0.58, 0.58, 1.05, 1.16, 1.7, 1.7, 1.16, 1.07, 1.19, 1.19, 1.19, 1.19, 1.73, 1.73, 1.73, 1.73, 1.57, 1.57, 1.08, 1.23, 1.6, 2.51, 3.78, 5.15, 4.55, 4.8, 4.0, 3.43, 3.43, 3.16, 3.16, 2.86, 2.22, 2.44, 2.44, 2.44, 2.2, 2.2, 2.44, 2.22, 2.82, 2.99, 3.8, 4.0, 3.8, 5.21, 4.96, 5.06, 5.14, 4.8, 4.48, 4.81, 6.8, 9.54, 9.18, 5.91, 4.01, 4.13, 5.2, 5.29, 5.02, 5.89, 5.29, 4.39, 3.73, 3.14, 3.04, 2.31, 2.31, 2.39, 1.55, 1.6, 1.64, 0.86, 0.85, 0.85, 1.63, 1.63, 1.63, 1.63, 1.63, 1.63, 1.63, 1.65, 2.29, 2.32, 1.67, 1.84, 1.16, 1.16, 1.16, 0.59, 0.59, 0.59, 0.53, 0.53, 0.53, 0.58, 0.58, 0.58, 1.05, 1.16, 1.7, 1.16, 1.16, 1.16, 1.07, 1.19, 1.19, 1.19, 1.19, 1.19, 1.19, 1.08, 1.57, 1.73, 1.19, 1.08, 1.27, 2.23, 3.43, 4.0, 4.37, 4.0, 3.43, 3.43, 3.43, 3.16, 3.16, 2.86, 2.48, 2.22, 2.44, 2.44, 2.44, 2.44, 2.44, 2.22, 2.44, 2.99, 4.14, 3.8, 4.96, 4.96, 5.36, 5.06, 4.44, 4.25, 3.82, 4.87, 5.55, 8.11, 10.59, 10.69, 8.03, 6.0, 4.48, 4.24, 4.48, 4.48, 4.48, 4.21, 3.23, 3.23, 2.45, 2.31, 1.55, 1.55, 1.6, 0.83, 0.85, 0.85, 0.85, 0.85, 1.63, 1.63, 1.63, 1.63, 1.63, 1.63, 1.73, 2.29, 2.29, 2.14, 1.8, 1.8, 1.67, 1.14, 1.14, 1.14, 1.05, 1.05, 1.05, 0.53, 0.58, 0.58, 0.58, 1.14, 1.16, 1.7, 1.16, 1.16, 1.16, 1.16, 1.16, 1.07, 1.19, 1.19, 1.19, 1.19, 1.19, 1.08, 1.08, 1.19, 1.19, 1.08, 1.11, 2.23, 3.43, 4.0, 4.27, 3.43, 3.43, 3.43, 3.43, 3.16, 3.16, 2.48, 2.48, 2.22, 1.76, 1.76, 1.76, 1.94, 1.76, 1.76, 2.22, 2.82, 4.14, 4.37, 4.0, 5.21, 4.34, 4.4, 3.51, 3.51, 4.13, 4.75, 4.81, 5.62, 8.2, 10.69, 10.59, 8.86, 6.4, 5.29, 4.32, 3.76, 3.68, 2.99, 3.11, 3.11, 2.45, 1.65, 1.6, 0.77, 0.8, 0.85, 0.85, 1.75, 1.75, 1.75, 1.76, 1.76, 1.76, 1.76, 1.63, 1.63, 1.76, 1.76, 1.76, 1.65, 1.65, 1.8, 1.8, 1.8, 1.14, 1.14, 1.14, 1.14, 1.14, 1.14, 0.58, 0.58, 1.14, 1.14, 1.16, 1.16, 1.16, 1.16, 1.16, 1.16, 1.16, 1.16, 1.07, 1.07, 1.19, 1.19, 1.19, 1.08, 1.08, 1.19, 1.19, 1.08, 1.11, 2.23, 3.43, 4.0, 4.27, 3.72, 3.43, 3.43, 3.16, 2.84, 2.51, 2.23, 2.48, 1.76, 1.76, 1.76, 1.76, 1.76, 1.76, 1.76, 1.76, 2.22, 4.14, 4.37, 4.0, 3.45, 3.49, 3.49, 3.77, 4.4, 4.13, 4.75, 4.98, 5.73, 6.54, 8.2, 9.89, 10.6, 9.92, 7.16, 4.48, 3.61, 3.61, 3.07, 2.88, 2.37, 1.6, 0.83, 1.2, 0.82, 0.82, 0.85, 1.75, 1.75, 1.75, 1.75, 1.2, 1.2, 1.76, 1.76, 1.63, 1.76, 1.76, 1.76, 1.65, 1.65, 1.65, 1.65, 1.8, 1.8, 1.8, 1.23, 1.23, 1.14, 1.14, 1.14, 1.14, 1.14, 1.14, 1.14, 1.7, 1.16, 1.16, 1.16, 1.16, 1.16, 1.16, 1.16, 1.16, 1.16, 1.07, 1.19, 1.19, 1.19, 1.08, 1.19, 1.19, 0.55, 1.11, 2.23, 3.78, 4.0, 3.88, 3.72, 3.35, 2.84, 2.84, 2.51, 2.23, 2.23, 1.8, 1.76, 1.76, 1.76, 1.76, 1.76, 1.76, 1.58, 1.8, 2.22, 2.2, 2.69, 2.69, 2.54, 2.57, 3.49, 3.65, 4.25, 5.0, 4.75, 5.67, 5.55, 6.47, 7.6, 9.09, 9.67, 10.6, 9.18, 6.4, 4.5, 3.85, 2.95, 2.19, 1.48, 0.86, 0.0, 1.22, 0.89, 1.84, 1.84, 1.75, 1.75, 1.75, 1.75, 1.12, 1.12, 1.76, 1.76, 1.2, 1.76, 1.76, 1.65, 1.65, 1.65, 1.65, 1.8, 1.8, 1.8, 1.65, 1.65, 1.12, 1.23, 1.23, 1.14, 1.14, 1.14, 1.67, 1.84, 1.84, 1.26, 1.14, 1.05, 1.16, 1.16, 1.16, 1.16, 1.16, 1.16, 1.16, 1.07, 1.07, 0.61, 1.08, 1.19, 1.07, 0.61, 1.11, 2.23, 3.78, 4.0, 3.88, 3.35, 3.14, 2.51, 2.51, 2.23, 1.8, 1.8, 1.58, 1.58, 1.58, 1.11, 1.11, 1.58, 1.58, 1.8, 1.8, 2.48, 2.2, 2.54, 2.54, 2.69, 3.7, 4.56, 4.4, 5.14, 5.2, 5.06, 5.8, 5.86, 6.6, 7.32, 8.74, 9.12, 9.92, 9.76, 8.25, 5.68, 3.85, 3.02, 2.15, 1.56, 0.82, 1.84, 1.84, 1.84, 2.7, 2.57, 3.32, 3.49, 3.49, 3.49, 1.12, 1.12, 1.2, 1.2, 1.2, 1.2, 1.2, 1.12, 1.65, 1.65, 1.8, 1.8, 1.8, 1.8, 1.65, 1.65, 1.65, 1.8, 1.8, 1.8, 1.8, 1.67, 1.67, 1.67, 1.14, 1.14, 1.14, 1.14, 1.05, 1.16, 1.16, 1.16, 1.16, 1.16, 1.16, 1.16, 0.59, 0.54, 1.19, 1.07, 0.54, 0.61, 1.23, 2.48, 3.78, 4.27, 3.88, 3.35, 2.79, 2.23, 2.23, 1.8, 1.8, 1.8, 1.27, 1.27, 1.27, 1.27, 1.27, 1.27, 1.8, 1.8, 1.8, 1.8, 2.22, 2.99, 2.69, 3.8, 4.2, 4.56, 4.4, 4.92, 5.0, 5.06, 5.6, 6.65, 6.52, 8.18, 8.86, 9.12, 8.86, 9.89, 10.48, 8.26, 4.4, 2.17, 2.35, 2.35, 2.35, 2.35, 1.84, 2.57, 2.57, 3.63, 4.2, 4.71, 4.71, 4.71, 1.12, 1.12, 1.12, 1.12, 1.12, 1.12, 1.12, 1.12, 1.65, 1.65, 1.8, 1.8, 1.8, 1.8, 1.65, 1.65, 1.65, 1.8, 1.8, 1.8, 1.8, 1.67, 1.14, 1.14, 1.14, 1.14, 1.14, 1.14, 1.14, 1.05, 1.05, 1.16, 1.16, 1.16, 1.16, 0.59, 0.59, 0.54, 1.19, 1.16, 0.59, 0.54, 1.23, 2.48, 3.78, 4.27, 3.72, 3.14, 2.53, 1.84, 1.84, 1.6, 1.8, 1.8, 1.27, 1.27, 1.27, 1.13, 1.13, 1.13, 1.13, 1.13, 1.84, 1.84, 2.0, 2.64, 3.4, 3.8, 3.45, 3.63, 4.2, 4.4, 5.14, 5.86, 5.93, 6.79, 7.49, 8.31, 8.99, 9.66, 8.99, 9.92, 11.4, 10.6, 5.8, 4.0, 4.0, 4.5, 3.78, 2.97, 2.23, 2.83, 3.63, 4.56, 4.71, 5.14, 5.14, 5.14, 1.12, 1.12, 1.12, 1.12, 1.12, 1.12, 1.12, 1.12, 1.12, 1.12, 1.8, 1.8, 1.23, 1.23, 1.23, 1.23, 1.23, 1.8, 1.67, 1.67, 1.14, 1.14, 1.14, 1.14, 1.14, 1.14, 1.14, 1.14, 1.14, 0.53, 0.53, 0.53, 0.59, 0.59, 0.59, 0.59, 0.59, 0.54, 0.54, 0.59, 0.59, 0.54, 1.11, 2.48, 3.78, 3.88, 3.72, 3.14, 2.23, 1.84, 1.33, 1.13, 1.13, 1.27, 0.59, 0.59, 0.59, 0.59, 0.59, 1.33, 1.33, 1.33, 1.33, 1.84, 1.8, 2.8, 3.55, 4.26, 4.74, 4.96, 5.21, 5.21, 4.56, 6.0, 6.45, 7.51, 8.18, 8.45, 8.84, 8.99, 9.12, 8.99, 9.67, 9.89, 7.2, 4.71, 4.83, 3.88, 3.78, 3.78, 3.06, 3.8, 4.6, 5.29, 5.14, 4.8, 4.8, 4.8, 1.12, 1.12, 1.12, 1.12, 1.12, 1.12, 1.12, 1.12, 1.12, 1.23, 1.23, 1.23, 1.23, 1.23, 1.23, 1.23, 1.23, 1.14, 1.14, 1.14, 1.14, 1.14, 1.14, 1.14, 1.14, 1.14, 1.14, 1.14, 0.58, 0.58, 0.53, 0.53, 0.53, 0.59, 0.59, 0.59, 0.54, 0.54, 0.59, 0.53, 0.53, 0.54, 1.11, 2.58, 3.43, 3.72, 3.35, 2.23, 1.84, 1.84, 1.33, 1.13, 1.13, 0.59, 0.59, 0.59, 0.0, 0.0, 0.61, 0.61, 0.61, 1.16, 1.16, 1.61, 1.84, 2.23, 3.0, 4.42, 5.53, 5.89, 6.04, 6.04, 6.04, 6.18, 6.7, 7.36, 8.01, 8.18, 8.05, 7.93, 8.06, 8.29, 8.03, 7.34, 5.77, 5.38, 4.5, 2.97, 2.97, 4.4, 5.52, 5.64, 5.29, 4.92, 4.44, 4.13, 4.13, 4.13, 1.12, 1.12, 1.12, 1.12, 1.12, 1.12, 1.12, 1.23, 1.14, 1.14, 1.14, 1.14, 1.14, 1.14, 1.14, 1.14, 1.14, 1.14, 1.14, 1.14, 1.14, 1.14, 1.14, 1.14, 1.14, 1.14, 0.58, 0.58, 0.58, 0.58, 0.53, 0.53, 0.53, 0.59, 0.59, 0.59, 0.54, 0.54, 0.59, 0.53, 0.0, 0.0, 1.11, 2.23, 3.43, 3.43, 2.84, 2.23, 1.84, 1.33, 1.33, 0.59, 0.59, 0.59, 0.59, 0.0, 0.0, 0.0, 0.0, 0.65, 0.65, 0.65, 1.2, 1.4, 1.61, 1.84, 2.99, 4.19, 4.42, 5.1, 6.18, 6.04, 6.83, 6.95, 6.53, 7.48, 7.64, 7.38, 7.25, 7.25, 7.93, 8.29, 7.4, 5.72, 5.2, 4.5, 3.88, 3.06, 4.0, 5.28, 5.95, 5.95, 5.14, 4.44, 4.13, 4.13, 4.13, 4.13, 1.12, 1.12, 1.12, 1.12, 1.12, 1.12, 1.14, 1.14, 1.14, 1.14, 1.14, 1.14, 1.14, 1.14, 1.14, 1.14, 1.14, 1.14, 1.14, 1.14, 1.14, 1.14, 1.14, 1.14, 1.14, 1.14, 0.58, 0.58, 0.58, 0.53, 0.53, 0.53, 0.53, 0.59, 0.59, 0.54, 0.54, 0.54, 0.0, 0.0, 0.0, 0.0, 1.27, 2.23, 2.84, 2.84, 2.51, 1.84, 1.84, 1.33, 0.61, 0.59, 0.59, 0.0, 0.0, 0.0, 0.0, 0.0, 0.0, 0.0, 0.0, 0.54, 0.65, 1.2, 1.2, 1.88, 1.84, 2.48, 3.97, 4.42, 5.1, 5.63, 6.04, 6.83, 6.95, 7.13, 7.36, 7.51, 7.63, 7.63, 8.05, 8.06, 8.07, 7.46, 4.58, 3.15, 3.8, 4.6, 5.38, 6.05, 5.09, 5.3, 4.13, 4.44, 4.13, 4.3, 4.3, 4.3, 0.58, 0.58, 0.58, 1.14, 1.14, 1.14, 1.14, 1.14, 1.14, 1.14, 1.14, 1.14, 1.14, 1.14, 1.14, 0.58, 0.58, 0.58, 1.14, 1.14, 1.14, 0.58, 0.58, 0.58, 0.58, 0.58, 0.58, 0.58, 0.53, 0.53, 0.53, 0.53, 0.53, 0.59, 0.59, 0.54, 0.0, 0.0, 0.0, 0.0, 0.0, 0.0, 1.27, 1.8, 2.51, 2.51, 1.84, 1.84, 1.33, 1.16, 0.61, 0.51, 0.0, 0.0, 0.0, 0.0, 0.0, 0.0, 0.0, 0.0, 0.0, 0.0, 0.71, 1.2, 1.2, 1.61, 1.88, 1.6, 2.8, 3.55, 4.26, 4.5, 5.63, 6.04, 6.04, 6.04, 6.7, 7.64, 7.38, 7.9, 8.18, 8.31, 9.89, 9.98, 6.73, 4.56, 4.34, 5.64, 5.28, 5.18, 4.68, 3.76, 3.39, 4.25, 4.44, 4.68, 4.68, 4.68, 0.58, 0.58, 0.58, 0.58, 0.58, 0.58, 0.58, 0.58, 0.58, 0.58, 0.58, 0.58, 0.58, 0.58, 0.58, 0.58, 0.58, 0.53, 0.53, 0.53, 0.53, 0.58, 0.53, 0.53, 0.58, 0.58, 0.58, 0.53, 0.53, 0.53, 0.53, 0.53, 0.53, 0.59, 0.59, 0.54, 0.0, 0.0, 0.0, 0.0, 0.0, 0.0, 1.27, 1.6, 2.51, 1.84, 1.84, 1.84, 1.33, 0.61, 0.61, 0.51, 0.0, 0.0, 0.0, 0.0, 0.0, 0.0, 0.71, 0.0, 0.0, 0.0, 0.57, 1.24, 1.24, 1.49, 1.2, 1.61, 1.8, 2.64, 3.77, 4.26, 5.1, 6.18, 6.04, 5.76, 5.21, 6.7, 6.84, 7.51, 8.01, 8.86, 9.55, 10.46, 9.05, 6.56, 6.14, 5.18, 4.5, 3.69, 3.16, 3.61, 3.69, 4.44, 5.0, 4.87, 4.87, 4.87, 0.58, 0.58, 0.58, 0.58, 0.58, 0.58, 0.58, 0.58, 0.58, 0.58, 0.58, 0.58, 0.58, 0.58, 0.58, 0.53, 0.53, 0.53, 0.53, 0.53, 0.53, 0.53, 0.53, 0.53, 0.53, 0.53, 0.53, 0.53, 0.59, 0.59, 0.59, 0.59, 0.59, 0.59, 0.59, 0.0, 0.0, 0.0, 0.0, 0.0, 0.0, 0.0, 0.59, 1.6, 1.84, 1.84, 1.84, 1.33, 1.16, 0.61, 0.61, 0.0, 0.0, 0.0, 0.0, 0.0, 0.0, 0.0, 0.71, 0.57, 0.0, 0.0, 0.8, 0.8, 1.24, 1.24, 1.24, 1.2, 1.6, 2.8, 3.97, 4.42, 5.53, 6.32, 6.18, 6.18, 5.63, 6.04, 6.15, 6.57, 7.51, 7.36, 8.16, 8.4, 9.13, 8.16, 6.87, 5.86, 4.5, 3.02, 3.11, 3.69, 5.09, 5.0, 5.2, 5.06, 5.06, 5.06, 0.58, 0.58, 0.58, 0.58, 0.58, 0.58, 0.58, 0.58, 0.58, 0.58, 0.58, 0.58, 0.58, 0.58, 0.53, 0.53, 0.53, 0.53, 0.53, 0.53, 0.53, 0.59, 0.59, 0.59, 0.53, 0.53, 0.59, 0.59, 0.59, 0.59, 0.0, 0.0, 0.0, 0.0, 0.0, 0.0, 0.0, 0.0, 0.0, 0.0, 0.0, 0.0, 0.59, 1.33, 1.84, 1.33, 1.16, 1.16, 1.16, 0.61, 0.61, 0.0, 0.0, 0.0, 0.0, 0.0, 0.0, 0.61, 0.65, 0.71, 0.0, 0.0, 0.6, 0.6, 0.8, 1.26, 1.24, 1.24, 1.88, 3.22, 3.91, 4.58, 5.37, 5.53, 5.89, 5.76, 5.21, 5.36, 6.04, 6.7, 6.45, 5.8, 5.91, 6.42, 7.52, 8.86, 7.49, 5.77, 4.4, 3.95, 3.88, 5.18, 5.86, 6.08, 5.06, 4.93, 4.93, 4.93, 0.58, 0.58, 0.58, 0.58, 0.58, 0.58, 0.58, 0.58, 0.58, 0.58, 0.58, 0.58, 0.53, 0.53, 0.53, 0.59, 0.59, 0.0, 0.0, 0.0, 0.59, 0.59, 0.59, 0.59, 0.59, 0.59, 0.59, 0.59, 0.0, 0.0, 0.0, 0.0, 0.0, 0.0, 0.0, 0.0, 0.0, 0.0, 0.0, 0.0, 0.0, 0.0, 0.59, 1.33, 1.16, 1.16, 1.16, 1.16, 0.61, 0.61, 0.61, 0.0, 0.0, 0.0, 0.0, 0.0, 0.0, 0.61, 0.65, 0.54, 0.0, 0.0, 0.0, 0.0, 0.6, 0.6, 0.8, 1.26, 1.24, 2.5, 2.51, 3.91, 4.58, 4.42, 4.5, 4.96, 5.21, 5.21, 4.34, 5.06, 5.14, 4.17, 4.71, 5.67, 6.42, 8.16, 7.49, 6.77, 5.77, 5.09, 5.18, 5.18, 5.86, 5.72, 5.25, 4.93, 4.93, 4.93, 0.58, 0.58, 0.58, 0.58, 0.58, 0.58, 0.58, 0.58, 0.0, 0.0, 0.0, 0.0, 0.0, 0.0, 0.0, 0.0, 0.0, 0.0, 0.0, 0.59, 0.59, 0.59, 0.59, 0.59, 0.59, 0.59, 0.59, 0.0, 0.0, 0.0, 0.0, 0.0, 0.0, 0.0, 0.0, 0.0, 0.0, 0.0, 0.0, 0.0, 0.0, 0.0, 0.0, 0.61, 1.16, 1.16, 0.61, 0.61, 0.61, 0.61, 0.61, 0.0, 0.0, 0.0, 0.0, 0.0, 0.0, 0.61, 0.53, 0.54, 0.0, 0.0, 0.0, 0.0, 0.0, 0.0, 0.95, 0.95, 1.26, 1.58, 1.2, 3.22, 3.91, 4.14, 3.77, 4.12, 4.34, 4.34, 3.63, 3.32, 4.25, 4.01, 4.1, 5.62, 7.2, 8.29, 7.49, 7.63, 7.28, 6.87, 6.71, 6.2, 6.09, 5.4, 5.02, 4.39, 4.39, 4.39, 0.58, 0.58, 0.58, 0.0, 0.0, 0.0, 0.0, 0.0, 0.0, 0.0, 0.0, 0.0, 0.0, 0.0, 0.0, 0.0, 0.0, 0.0, 0.0, 0.0, 0.59, 0.59, 0.59, 0.0, 0.0, 0.0, 0.0, 0.0, 0.0, 0.0, 0.0, 0.0, 0.0, 0.0, 0.0, 0.0, 0.0, 0.0, 0.0, 0.0, 0.0, 0.0, 0.0, 0.0, 0.61, 0.53, 0.65, 0.53, 0.53, 0.61, 0.0, 0.0, 0.0, 0.0, 0.0, 0.0, 0.0, 0.61, 0.61, 0.0, 0.0, 0.0, 0.0, 0.0, 0.0, 0.0, 0.0, 0.0, 0.63, 0.6, 0.57, 1.2, 1.6, 2.82, 2.67, 3.45, 3.63, 4.56, 3.49, 3.49, 3.51, 3.29, 4.21, 5.73, 7.32, 8.29, 9.11, 9.24, 8.84, 8.45, 7.78, 6.7, 6.09, 5.68, 4.39, 4.1, 4.1, 4.1, 0.58, 0.58, 0.58, 0.0, 0.0, 0.0, 0.0, 0.0, 0.0, 0.0, 0.0, 0.0, 0.0, 0.0, 0.0, 0.0, 0.0, 0.0, 0.0, 0.0, 0.59, 0.59, 0.59, 0.0, 0.0, 0.0, 0.0, 0.0, 0.0, 0.0, 0.0, 0.0, 0.0, 0.0, 0.0, 0.0, 0.0, 0.0, 0.0, 0.0, 0.0, 0.0, 0.0, 0.0, 0.61, 0.53, 0.65, 0.53, 0.53, 0.61, 0.0, 0.0, 0.0, 0.0, 0.0, 0.0, 0.0, 0.61, 0.61, 0.0, 0.0, 0.0, 0.0, 0.0, 0.0, 0.0, 0.0, 0.0, 0.63, 0.6, 0.57, 1.2, 1.6, 2.82, 2.67, 3.45, 4.34, 4.56, 3.49, 3.49, 3.51, 3.29, 4.93, 5.86, 7.23, 8.99, 9.89, 9.89, 9.89, 9.89, 9.24, 8.18, 7.38, 5.8, 4.93, 4.21, 4.21, 4.21]}]